Time,TemperatureF,DewpointF,PressureIn,WindDirection,WindDirectionDegrees,WindSpeedMPH,WindSpeedGustMPH,Humidity,HourlyPrecipIn,Conditions,Clouds,dailyrainin,SolarRadiationWatts/m^2,SoftwareType,DateUTC
2013-02-02 00:01:00,19.7,15.4,29.26,SW,236,0.0,3.0,83,0.00,,,0.00,0.00,VWS V14.01,2013-02-02 06:01:00,
2013-02-02 00:02:00,19.7,15.4,29.26,SE,127,0.0,2.0,83,0.00,,,0.00,0.00,VWS V14.01,2013-02-02 06:02:00,
2013-02-02 00:03:00,19.7,15.4,29.26,South,179,0.0,2.0,83,0.00,,,0.00,0.00,VWS V14.01,2013-02-02 06:03:00,
2013-02-02 00:05:00,19.7,15.4,29.26,SE,132,1.0,5.0,83,0.00,,,0.00,0.00,VWS V14.01,2013-02-02 06:05:00,
2013-02-02 00:06:00,19.7,15.4,29.26,WSW,246,1.0,4.0,83,0.00,,,0.00,0.00,VWS V14.01,2013-02-02 06:06:00,
2013-02-02 00:10:00,19.7,15.7,29.27,WSW,239,1.0,3.0,84,0.00,,,0.00,0.00,VWS V14.01,2013-02-02 06:10:00,
2013-02-02 00:11:00,19.7,15.7,29.27,WSW,239,0.0,1.0,84,0.00,,,0.00,0.00,VWS V14.01,2013-02-02 06:11:00,
2013-02-02 00:12:00,19.7,15.7,29.27,WSW,239,1.0,3.0,84,0.00,,,0.00,0.00,VWS V14.01,2013-02-02 06:12:00,
2013-02-02 00:16:00,19.7,15.7,29.28,SW,225,2.0,4.0,84,0.00,,,0.00,0.00,VWS V14.01,2013-02-02 06:16:00,
2013-02-02 00:17:00,19.7,15.7,29.28,West,263,5.0,6.0,84,0.00,,,0.00,0.00,VWS V14.01,2013-02-02 06:17:00,
2013-02-02 00:20:00,19.7,15.7,29.28,SSW,213,2.0,3.0,84,0.00,,,0.00,0.00,VWS V14.01,2013-02-02 06:20:00,
2013-02-02 00:22:00,19.7,15.7,29.28,WNW,294,4.0,4.0,84,0.00,,,0.00,0.00,VWS V14.01,2013-02-02 06:22:00,
2013-02-02 00:23:00,19.7,15.7,29.28,SW,232,3.0,6.0,84,0.00,,,0.00,0.00,VWS V14.01,2013-02-02 06:23:00,
2013-02-02 00:24:00,19.7,15.7,29.28,SSW,192,1.0,4.0,84,0.00,,,0.00,0.00,VWS V14.01,2013-02-02 06:24:00,
2013-02-02 00:27:00,19.8,16.0,29.27,SSW,212,2.0,2.0,85,0.00,,,0.00,0.00,VWS V14.01,2013-02-02 06:27:00,
2013-02-02 00:28:00,19.8,16.0,29.27,SW,214,0.0,3.0,85,0.00,,,0.00,0.00,VWS V14.01,2013-02-02 06:28:00,
2013-02-02 00:30:00,19.9,16.1,29.27,South,180,2.0,3.0,85,0.00,,,0.00,0.00,VWS V14.01,2013-02-02 06:30:00,
2013-02-02 00:33:00,19.9,16.1,29.27,SSE,161,0.0,4.0,85,0.00,,,0.00,0.00,VWS V14.01,2013-02-02 06:33:00,
2013-02-02 00:34:00,19.9,16.1,29.27,WSW,252,0.0,3.0,85,0.00,,,0.00,0.00,VWS V14.01,2013-02-02 06:34:00,
2013-02-02 00:36:00,19.9,16.1,29.27,SW,233,0.0,1.0,85,0.00,,,0.00,0.00,VWS V14.01,2013-02-02 06:36:00,
2013-02-02 00:37:00,20.0,16.2,29.27,SW,232,3.0,3.0,85,0.00,,,0.00,0.00,VWS V14.01,2013-02-02 06:37:00,
2013-02-02 00:40:00,20.0,16.2,29.27,ESE,119,1.0,2.0,85,0.00,,,0.00,0.00,VWS V14.01,2013-02-02 06:40:00,
2013-02-02 00:43:00,20.1,16.3,29.27,South,182,0.0,1.0,85,0.00,,,0.00,0.00,VWS V14.01,2013-02-02 06:43:00,
2013-02-02 00:45:00,20.1,16.3,29.27,SE,144,0.0,1.0,85,0.00,,,0.00,0.00,VWS V14.01,2013-02-02 06:45:00,
2013-02-02 00:46:00,20.1,16.3,29.27,SE,144,0.0,1.0,85,0.00,,,0.00,0.00,VWS V14.01,2013-02-02 06:46:00,
2013-02-02 00:49:00,20.1,16.3,29.27,SW,232,0.0,3.0,85,0.00,,,0.00,0.00,VWS V14.01,2013-02-02 06:49:00,
2013-02-02 00:51:00,20.2,16.4,29.26,SW,233,1.0,1.0,85,0.00,,,0.00,0.00,VWS V14.01,2013-02-02 06:51:00,
2013-02-02 00:53:00,20.2,16.4,29.26,SW,227,0.0,4.0,85,0.00,,,0.00,0.00,VWS V14.01,2013-02-02 06:53:00,
2013-02-02 00:56:00,20.2,16.4,29.26,SW,228,0.0,1.0,85,0.00,,,0.00,0.00,VWS V14.01,2013-02-02 06:56:00,
2013-02-02 01:00:00,20.2,16.7,29.25,SW,228,0.0,1.0,86,0.00,,,0.00,0.00,VWS V14.01,2013-02-02 07:00:00,
2013-02-02 01:01:00,20.3,16.8,29.26,SW,228,0.0,2.0,86,0.00,,,0.00,0.00,VWS V14.01,2013-02-02 07:01:00,
2013-02-02 01:02:00,20.3,16.8,29.26,SW,227,2.0,2.0,86,0.00,,,0.00,0.00,VWS V14.01,2013-02-02 07:02:00,
2013-02-02 01:03:00,20.3,16.8,29.26,SW,228,0.0,2.0,86,0.00,,,0.00,0.00,VWS V14.01,2013-02-02 07:03:00,
2013-02-02 01:07:00,20.4,16.9,29.26,SSW,196,0.0,3.0,86,0.00,,,0.00,0.00,VWS V14.01,2013-02-02 07:07:00,
2013-02-02 01:08:00,20.4,16.9,29.26,East,96,1.0,5.0,86,0.00,,,0.00,0.00,VWS V14.01,2013-02-02 07:08:00,
2013-02-02 01:09:00,20.4,16.9,29.26,SW,222,1.0,2.0,86,0.00,,,0.00,0.00,VWS V14.01,2013-02-02 07:09:00,
2013-02-02 01:13:00,20.4,16.9,29.25,ESE,106,2.0,4.0,86,0.00,,,0.00,0.00,VWS V14.01,2013-02-02 07:13:00,
2013-02-02 01:17:00,20.5,17.0,29.25,SSW,209,0.0,2.0,86,0.00,,,0.00,0.00,VWS V14.01,2013-02-02 07:17:00,
2013-02-02 01:18:00,20.5,17.0,29.25,SSW,192,0.0,6.0,86,0.00,,,0.00,0.00,VWS V14.01,2013-02-02 07:18:00,
2013-02-02 01:19:00,20.5,17.0,29.25,South,169,0.0,4.0,86,0.00,,,0.00,0.00,VWS V14.01,2013-02-02 07:19:00,
2013-02-02 01:21:00,20.5,17.0,29.24,SW,217,0.0,4.0,86,0.00,,,0.00,0.00,VWS V14.01,2013-02-02 07:21:00,
2013-02-02 01:25:00,20.5,17.0,29.24,ESE,118,0.0,1.0,86,0.00,,,0.00,0.00,VWS V14.01,2013-02-02 07:25:00,
2013-02-02 01:26:00,20.5,17.0,29.24,SSW,209,0.0,2.0,86,0.00,,,0.00,0.00,VWS V14.01,2013-02-02 07:26:00,
2013-02-02 01:27:00,20.5,17.0,29.24,ESE,107,0.0,1.0,86,0.00,,,0.00,0.00,VWS V14.01,2013-02-02 07:27:00,
2013-02-02 01:31:00,20.5,17.0,29.24,SW,232,4.0,4.0,86,0.00,,,0.00,0.00,VWS V14.01,2013-02-02 07:31:00,
2013-02-02 01:32:00,20.5,17.0,29.24,ESE,115,0.0,5.0,86,0.00,,,0.00,0.00,VWS V14.01,2013-02-02 07:32:00,
2013-02-02 01:33:00,20.5,17.0,29.24,SSW,208,2.0,2.0,86,0.00,,,0.00,0.00,VWS V14.01,2013-02-02 07:33:00,
2013-02-02 01:36:00,20.5,17.0,29.24,SSW,198,3.0,5.0,86,0.00,,,0.00,0.00,VWS V14.01,2013-02-02 07:36:00,
2013-02-02 01:39:00,20.4,16.9,29.24,SSW,207,0.0,2.0,86,0.00,,,0.00,0.00,VWS V14.01,2013-02-02 07:39:00,
2013-02-02 01:42:00,20.4,16.9,29.24,SW,221,2.0,2.0,86,0.00,,,0.00,0.00,VWS V14.01,2013-02-02 07:42:00,
2013-02-02 01:43:00,20.4,16.9,29.24,SSE,164,0.0,2.0,86,0.00,,,0.00,0.00,VWS V14.01,2013-02-02 07:43:00,
2013-02-02 01:46:00,20.5,17.0,29.24,SSE,152,1.0,3.0,86,0.00,,,0.00,0.00,VWS V14.01,2013-02-02 07:46:00,
2013-02-02 01:47:00,20.4,16.9,29.24,SW,235,1.0,5.0,86,0.00,,,0.00,0.00,VWS V14.01,2013-02-02 07:47:00,
2013-02-02 01:48:00,20.4,16.9,29.24,SW,217,3.0,4.0,86,0.00,,,0.00,0.00,VWS V14.01,2013-02-02 07:48:00,
2013-02-02 01:51:00,20.4,17.2,29.24,SSW,206,3.0,3.0,87,0.00,,,0.00,0.00,VWS V14.01,2013-02-02 07:51:00,
2013-02-02 01:53:00,20.4,17.2,29.23,SW,214,2.0,2.0,87,0.00,,,0.00,0.00,VWS V14.01,2013-02-02 07:53:00,
2013-02-02 01:54:00,20.4,17.2,29.24,SSW,213,0.0,2.0,87,0.00,,,0.00,0.00,VWS V14.01,2013-02-02 07:54:00,
2013-02-02 01:57:00,20.4,17.2,29.23,WSW,245,2.0,3.0,87,0.00,,,0.00,0.00,VWS V14.01,2013-02-02 07:57:00,
2013-02-02 02:00:00,20.4,16.9,29.23,SW,233,3.0,3.0,86,0.00,,,0.00,0.00,VWS V14.01,2013-02-02 08:00:00,
2013-02-02 02:02:00,20.4,16.9,29.23,ESE,113,0.0,0.0,86,0.00,,,0.00,0.00,VWS V14.01,2013-02-02 08:02:00,
2013-02-02 02:06:00,20.4,17.2,29.23,SW,231,0.0,0.0,87,0.00,,,0.00,0.00,VWS V14.01,2013-02-02 08:06:00,
2013-02-02 02:11:00,20.4,17.2,29.23,SSW,199,1.0,3.0,87,0.00,,,0.00,0.00,VWS V14.01,2013-02-02 08:11:00,
2013-02-02 02:12:00,20.4,17.2,29.23,East,101,1.0,2.0,87,0.00,,,0.00,0.00,VWS V14.01,2013-02-02 08:12:00,
2013-02-02 02:15:00,20.4,17.2,29.23,ESE,113,1.0,4.0,87,0.00,,,0.00,0.00,VWS V14.01,2013-02-02 08:15:00,
2013-02-02 02:17:00,20.5,17.2,29.22,SW,221,0.0,3.0,87,0.00,,,0.00,0.00,VWS V14.01,2013-02-02 08:17:00,
2013-02-02 02:20:00,20.5,17.2,29.22,SSW,202,0.0,1.0,87,0.00,,,0.00,0.00,VWS V14.01,2013-02-02 08:20:00,
2013-02-02 02:21:00,20.5,17.2,29.22,SSW,202,1.0,2.0,87,0.00,,,0.00,0.00,VWS V14.01,2013-02-02 08:21:00,
2013-02-02 02:22:00,20.5,17.2,29.22,SW,229,3.0,4.0,87,0.00,,,0.00,0.00,VWS V14.01,2013-02-02 08:22:00,
2013-02-02 02:23:00,20.5,17.2,29.22,SSW,209,0.0,4.0,87,0.00,,,0.00,0.00,VWS V14.01,2013-02-02 08:23:00,
2013-02-02 02:27:00,20.5,17.2,29.22,SW,214,0.0,1.0,87,0.00,,,0.00,0.00,VWS V14.01,2013-02-02 08:27:00,
2013-02-02 02:29:00,20.5,17.2,29.22,South,176,0.0,1.0,87,0.00,,,0.00,0.00,VWS V14.01,2013-02-02 08:29:00,
2013-02-02 02:30:00,20.5,17.2,29.22,South,176,1.0,1.0,87,0.00,,,0.00,0.00,VWS V14.01,2013-02-02 08:30:00,
2013-02-02 02:31:00,20.5,17.2,29.22,SW,225,1.0,3.0,87,0.00,,,0.00,0.00,VWS V14.01,2013-02-02 08:31:00,
2013-02-02 02:33:00,20.6,17.4,29.21,SW,225,2.0,4.0,87,0.00,,,0.00,0.00,VWS V14.01,2013-02-02 08:33:00,
2013-02-02 02:34:00,20.6,17.4,29.21,SE,124,0.0,2.0,87,0.00,,,0.00,0.00,VWS V14.01,2013-02-02 08:34:00,
2013-02-02 02:36:00,20.6,17.4,29.21,SE,137,0.0,1.0,87,0.00,,,0.00,0.00,VWS V14.01,2013-02-02 08:36:00,
2013-02-02 02:39:00,20.6,17.4,29.21,South,186,0.0,2.0,87,0.00,,,0.00,0.00,VWS V14.01,2013-02-02 08:39:00,
2013-02-02 02:40:00,20.6,17.4,29.21,SW,227,0.0,3.0,87,0.00,,,0.00,0.00,VWS V14.01,2013-02-02 08:40:00,
2013-02-02 02:43:00,20.6,17.4,29.21,SSW,199,0.0,1.0,87,0.00,,,0.00,0.00,VWS V14.01,2013-02-02 08:43:00,
2013-02-02 02:45:00,20.6,17.4,29.21,WSW,241,0.0,5.0,87,0.00,,,0.00,0.00,VWS V14.01,2013-02-02 08:45:00,
2013-02-02 02:46:00,20.6,17.4,29.21,SE,137,0.0,1.0,87,0.00,,,0.00,0.00,VWS V14.01,2013-02-02 08:46:00,
2013-02-02 02:48:00,20.7,17.5,29.21,SE,132,0.0,2.0,87,0.00,,,0.00,0.00,VWS V14.01,2013-02-02 08:48:00,
2013-02-02 02:50:00,20.7,17.5,29.20,SE,126,0.0,1.0,87,0.00,,,0.00,0.00,VWS V14.01,2013-02-02 08:50:00,
2013-02-02 02:53:00,20.7,17.5,29.20,SE,145,1.0,4.0,87,0.00,,,0.00,0.00,VWS V14.01,2013-02-02 08:53:00,
2013-02-02 02:54:00,20.7,17.5,29.20,SE,146,1.0,2.0,87,0.00,,,0.00,0.00,VWS V14.01,2013-02-02 08:54:00,
2013-02-02 02:58:00,20.7,17.5,29.20,South,178,0.0,1.0,87,0.00,,,0.00,0.00,VWS V14.01,2013-02-02 08:58:00,
2013-02-02 02:59:00,20.8,17.5,29.20,South,178,1.0,2.0,87,0.00,,,0.00,0.00,VWS V14.01,2013-02-02 08:59:00,
2013-02-02 03:01:00,20.7,17.5,29.20,South,178,0.0,2.0,87,0.00,,BKN042,0.00,0.00,VWS V14.01,2013-02-02 09:01:00,
2013-02-02 03:02:00,20.8,17.5,29.20,SSW,213,1.0,3.0,87,0.00,,BKN042,0.00,0.00,VWS V14.01,2013-02-02 09:02:00,
2013-02-02 03:07:00,20.9,17.6,29.20,SE,133,2.0,6.0,87,0.00,,BKN042,0.00,0.00,VWS V14.01,2013-02-02 09:07:00,
2013-02-02 03:08:00,20.9,17.6,29.19,South,186,0.0,4.0,87,0.00,,BKN042,0.00,0.00,VWS V14.01,2013-02-02 09:08:00,
2013-02-02 03:12:00,20.9,17.6,29.19,South,186,0.0,0.0,87,0.00,,BKN042,0.00,0.00,VWS V14.01,2013-02-02 09:12:00,
2013-02-02 03:14:00,20.9,17.6,29.19,South,184,0.0,2.0,87,0.00,,BKN042,0.00,0.00,VWS V14.01,2013-02-02 09:14:00,
2013-02-02 03:16:00,21.0,17.8,29.19,South,190,0.0,2.0,87,0.00,,BKN042,0.00,0.00,VWS V14.01,2013-02-02 09:16:00,
2013-02-02 03:20:00,21.1,17.8,29.19,South,182,0.0,1.0,87,0.00,,BKN042,0.00,0.00,VWS V14.01,2013-02-02 09:20:00,
2013-02-02 03:22:00,21.1,17.8,29.19,South,188,2.0,3.0,87,0.00,,BKN042,0.00,0.00,VWS V14.01,2013-02-02 09:22:00,
2013-02-02 03:25:00,21.1,17.8,29.18,South,171,0.0,4.0,87,0.00,,BKN042,0.00,0.00,VWS V14.01,2013-02-02 09:25:00,
2013-02-02 03:27:00,21.2,17.9,29.18,South,172,2.0,4.0,87,0.00,,BKN042,0.00,0.00,VWS V14.01,2013-02-02 09:27:00,
2013-02-02 03:28:00,21.2,17.9,29.18,SW,215,0.0,3.0,87,0.00,,BKN042,0.00,0.00,VWS V14.01,2013-02-02 09:28:00,
2013-02-02 03:33:00,21.3,18.0,29.18,ESE,112,1.0,4.0,87,0.00,,BKN042,0.00,0.00,VWS V14.01,2013-02-02 09:33:00,
2013-02-02 03:34:00,21.3,18.0,29.18,South,175,1.0,3.0,87,0.00,,BKN042,0.00,0.00,VWS V14.01,2013-02-02 09:34:00,
2013-02-02 03:36:00,21.3,18.0,29.18,SW,217,4.0,4.0,87,0.00,,BKN042,0.00,0.00,VWS V14.01,2013-02-02 09:36:00,
2013-02-02 03:41:00,21.5,18.2,29.17,SW,225,0.0,2.0,87,0.00,,BKN042,0.00,0.00,VWS V14.01,2013-02-02 09:41:00,
2013-02-02 03:42:00,21.5,18.2,29.17,SE,138,1.0,2.0,87,0.00,,BKN042,0.00,0.00,VWS V14.01,2013-02-02 09:42:00,
2013-02-02 03:44:00,21.5,18.2,29.17,ESE,107,1.0,1.0,87,0.00,,BKN042,0.00,0.00,VWS V14.01,2013-02-02 09:44:00,
2013-02-02 03:46:00,21.5,18.2,29.17,SW,217,0.0,6.0,87,0.00,,BKN042,0.00,0.00,VWS V14.01,2013-02-02 09:46:00,
2013-02-02 03:47:00,21.5,18.2,29.17,ESE,117,1.0,5.0,87,0.00,,BKN042,0.00,0.00,VWS V14.01,2013-02-02 09:47:00,
2013-02-02 03:49:00,21.6,18.3,29.17,South,182,0.0,1.0,87,0.00,,BKN042,0.00,0.00,VWS V14.01,2013-02-02 09:49:00,
2013-02-02 03:53:00,21.6,18.3,29.17,SE,140,0.0,2.0,87,0.00,,BKN042,0.00,0.00,VWS V14.01,2013-02-02 09:53:00,
2013-02-02 03:54:00,21.6,18.3,29.17,SE,140,2.0,2.0,87,0.00,,BKN042,0.00,0.00,VWS V14.01,2013-02-02 09:54:00,
2013-02-02 03:55:00,21.6,18.3,29.16,SSW,199,0.0,6.0,87,0.00,,BKN042,0.00,0.00,VWS V14.01,2013-02-02 09:55:00,
2013-02-02 03:56:00,21.6,18.3,29.16,SW,215,4.0,4.0,87,0.00,,BKN042,0.00,0.00,VWS V14.01,2013-02-02 09:56:00,
2013-02-02 04:00:00,21.6,18.3,29.16,ESE,110,2.0,3.0,87,0.00,,BKN042,0.00,0.00,VWS V14.01,2013-02-02 10:00:00,
2013-02-02 04:01:00,21.6,18.3,29.17,SSE,165,2.0,4.0,87,0.00,,OVC075,0.00,0.00,VWS V14.01,2013-02-02 10:01:00,
2013-02-02 04:02:00,21.6,18.3,29.16,South,177,4.0,5.0,87,0.00,,OVC075,0.00,0.00,VWS V14.01,2013-02-02 10:02:00,
2013-02-02 04:06:00,21.6,18.3,29.16,SSE,161,2.0,4.0,87,0.00,,OVC075,0.00,0.00,VWS V14.01,2013-02-02 10:06:00,
2013-02-02 04:08:00,21.6,18.3,29.16,SSE,161,1.0,3.0,87,0.00,,OVC075,0.00,0.00,VWS V14.01,2013-02-02 10:08:00,
2013-02-02 04:09:00,21.6,18.3,29.16,SE,135,0.0,2.0,87,0.00,,OVC075,0.00,0.00,VWS V14.01,2013-02-02 10:09:00,
2013-02-02 04:11:00,21.6,18.3,29.16,WSW,237,2.0,5.0,87,0.00,,OVC075,0.00,0.00,VWS V14.01,2013-02-02 10:11:00,
2013-02-02 04:12:00,21.6,18.3,29.17,ESE,117,0.0,5.0,87,0.00,,OVC075,0.00,0.00,VWS V14.01,2013-02-02 10:12:00,
2013-02-02 04:14:00,21.6,18.3,29.16,WSW,246,0.0,4.0,87,0.00,,OVC075,0.00,0.00,VWS V14.01,2013-02-02 10:14:00,
2013-02-02 04:16:00,21.6,18.3,29.16,SSE,161,0.0,6.0,87,0.00,,OVC075,0.00,0.00,VWS V14.01,2013-02-02 10:16:00,
2013-02-02 04:19:00,21.6,18.3,29.15,SSW,211,5.0,5.0,87,0.00,,OVC075,0.00,0.00,VWS V14.01,2013-02-02 10:19:00,
2013-02-02 04:21:00,21.6,18.3,29.15,SW,214,3.0,6.0,87,0.00,,OVC075,0.00,0.00,VWS V14.01,2013-02-02 10:21:00,
2013-02-02 04:25:00,21.6,18.3,29.15,SSE,165,2.0,6.0,87,0.00,,OVC075,0.00,0.00,VWS V14.01,2013-02-02 10:25:00,
2013-02-02 04:29:00,21.6,18.3,29.15,East,96,6.0,7.0,87,0.00,,OVC075,0.00,0.00,VWS V14.01,2013-02-02 10:29:00,
2013-02-02 04:30:00,21.6,18.3,29.15,SE,131,5.0,6.0,87,0.00,,OVC075,0.00,0.00,VWS V14.01,2013-02-02 10:30:00,
2013-02-02 04:33:00,21.6,18.3,29.15,South,170,0.0,2.0,87,0.00,,OVC075,0.00,0.00,VWS V14.01,2013-02-02 10:33:00,
2013-02-02 04:34:00,21.6,18.3,29.15,South,170,0.0,1.0,87,0.00,,OVC075,0.00,0.00,VWS V14.01,2013-02-02 10:34:00,
2013-02-02 04:37:00,21.6,18.3,29.15,ESE,104,1.0,3.0,87,0.00,,OVC075,0.00,0.00,VWS V14.01,2013-02-02 10:37:00,
2013-02-02 04:40:00,21.6,18.3,29.15,SE,132,4.0,5.0,87,0.00,,OVC075,0.00,0.00,VWS V14.01,2013-02-02 10:40:00,
2013-02-02 04:45:00,21.6,18.3,29.15,SSE,165,0.0,4.0,87,0.00,,OVC075,0.00,0.00,VWS V14.01,2013-02-02 10:45:00,
2013-02-02 04:46:00,21.6,18.3,29.15,South,176,1.0,4.0,87,0.00,,OVC075,0.00,0.00,VWS V14.01,2013-02-02 10:46:00,
2013-02-02 04:47:00,21.6,18.1,29.15,SW,214,1.0,3.0,86,0.00,,OVC075,0.00,0.00,VWS V14.01,2013-02-02 10:47:00,
2013-02-02 04:50:00,21.6,18.1,29.15,SW,217,0.0,3.0,86,0.00,,OVC075,0.00,0.00,VWS V14.01,2013-02-02 10:50:00,
2013-02-02 04:52:00,21.6,18.1,29.15,SW,232,0.0,3.0,86,0.00,,OVC075,0.00,0.00,VWS V14.01,2013-02-02 10:52:00,
2013-02-02 04:56:00,21.6,18.1,29.15,ESE,113,0.0,6.0,86,0.00,,OVC075,0.00,0.00,VWS V14.01,2013-02-02 10:56:00,
2013-02-02 04:57:00,21.6,18.1,29.15,SSE,150,1.0,6.0,86,0.00,,OVC075,0.00,0.00,VWS V14.01,2013-02-02 10:57:00,
2013-02-02 04:59:00,21.6,18.1,29.15,SW,221,2.0,3.0,86,0.00,,OVC075,0.00,0.00,VWS V14.01,2013-02-02 10:59:00,
2013-02-02 05:03:00,21.6,18.1,29.15,SSE,165,0.0,2.0,86,0.00,,OVC080,0.00,0.00,VWS V14.01,2013-02-02 11:03:00,
2013-02-02 05:04:00,21.6,18.1,29.15,SSE,165,0.0,1.0,86,0.00,,OVC080,0.00,0.00,VWS V14.01,2013-02-02 11:04:00,
2013-02-02 05:07:00,21.6,17.8,29.15,ESE,118,2.0,5.0,85,0.00,,OVC080,0.00,0.00,VWS V14.01,2013-02-02 11:07:00,
2013-02-02 05:10:00,21.6,18.1,29.14,SE,129,0.0,2.0,86,0.00,,OVC080,0.00,0.00,VWS V14.01,2013-02-02 11:10:00,
2013-02-02 05:13:00,21.7,17.9,29.14,SW,227,1.0,4.0,85,0.00,,OVC080,0.00,0.00,VWS V14.01,2013-02-02 11:13:00,
2013-02-02 05:15:00,21.7,17.9,29.14,SW,228,3.0,3.0,85,0.00,,OVC080,0.00,0.00,VWS V14.01,2013-02-02 11:15:00,
2013-02-02 05:18:00,21.7,17.9,29.14,SW,219,4.0,4.0,85,0.00,,OVC080,0.00,0.00,VWS V14.01,2013-02-02 11:18:00,
2013-02-02 05:19:00,21.7,17.9,29.14,SW,219,0.0,4.0,85,0.00,,OVC080,0.00,0.00,VWS V14.01,2013-02-02 11:19:00,
2013-02-02 05:20:00,21.8,18.0,29.14,SW,218,0.0,1.0,85,0.00,,OVC080,0.00,0.00,VWS V14.01,2013-02-02 11:20:00,
2013-02-02 05:24:00,21.8,18.0,29.14,SW,222,0.0,3.0,85,0.00,,OVC080,0.00,0.00,VWS V14.01,2013-02-02 11:24:00,
2013-02-02 05:25:00,21.8,18.0,29.14,SSE,158,0.0,2.0,85,0.00,,OVC080,0.00,0.00,VWS V14.01,2013-02-02 11:25:00,
2013-02-02 05:29:00,21.9,17.8,29.14,SSW,209,0.0,4.0,84,0.00,,OVC080,0.00,0.00,VWS V14.01,2013-02-02 11:29:00,
2013-02-02 05:31:00,21.9,17.8,29.14,WSW,252,0.0,5.0,84,0.00,,OVC080,0.00,0.00,VWS V14.01,2013-02-02 11:31:00,
2013-02-02 05:35:00,22.0,17.9,29.14,SE,134,0.0,1.0,84,0.00,,OVC080,0.00,0.00,VWS V14.01,2013-02-02 11:35:00,
2013-02-02 05:37:00,22.0,17.9,29.14,SSW,194,3.0,4.0,84,0.00,,OVC080,0.00,0.00,VWS V14.01,2013-02-02 11:37:00,
2013-02-02 05:40:00,22.1,17.7,29.14,SW,217,0.0,3.0,83,0.00,,OVC080,0.00,0.00,VWS V14.01,2013-02-02 11:40:00,
2013-02-02 05:42:00,22.0,17.9,29.14,SE,136,0.0,2.0,84,0.00,,OVC080,0.00,0.00,VWS V14.01,2013-02-02 11:42:00,
2013-02-02 05:43:00,22.1,18.0,29.14,SE,136,0.0,0.0,84,0.00,,OVC080,0.00,0.00,VWS V14.01,2013-02-02 11:43:00,
2013-02-02 05:48:00,22.1,17.7,29.14,WSW,249,0.0,3.0,83,0.00,,OVC080,0.00,0.00,VWS V14.01,2013-02-02 11:48:00,
2013-02-02 05:50:00,22.1,17.7,29.14,SSW,202,1.0,4.0,83,0.00,,OVC080,0.00,0.00,VWS V14.01,2013-02-02 11:50:00,
2013-02-02 05:56:00,22.2,17.8,29.14,ENE,75,0.0,3.0,83,0.00,,OVC080,0.00,0.00,VWS V14.01,2013-02-02 11:56:00,
2013-02-02 05:57:00,22.2,17.8,29.14,SSW,211,1.0,6.0,83,0.00,,OVC080,0.00,0.00,VWS V14.01,2013-02-02 11:57:00,
2013-02-02 05:58:00,22.2,17.8,29.14,SSE,162,0.0,2.0,83,0.00,,OVC080,0.00,0.00,VWS V14.01,2013-02-02 11:58:00,
2013-02-02 06:01:00,22.3,17.6,29.13,SW,226,3.0,3.0,82,0.00,,OVC080,0.00,0.00,VWS V14.01,2013-02-02 12:01:00,
2013-02-02 06:03:00,22.3,17.6,29.13,SW,222,0.0,2.0,82,0.00,,OVC080,0.00,0.00,VWS V14.01,2013-02-02 12:03:00,
2013-02-02 06:04:00,22.3,17.6,29.13,SE,146,1.0,5.0,82,0.00,,OVC080,0.00,0.00,VWS V14.01,2013-02-02 12:04:00,
2013-02-02 06:07:00,22.3,17.6,29.13,SSE,147,0.0,0.0,82,0.00,,OVC080,0.00,0.00,VWS V14.01,2013-02-02 12:07:00,
2013-02-02 06:08:00,22.3,17.6,29.13,WSW,239,0.0,3.0,82,0.00,,OVC080,0.00,0.00,VWS V14.01,2013-02-02 12:08:00,
2013-02-02 06:11:00,22.3,17.6,29.13,SE,144,0.0,2.0,82,0.00,,OVC080,0.00,0.00,VWS V14.01,2013-02-02 12:11:00,
2013-02-02 06:12:00,22.3,17.6,29.13,ESE,108,0.0,4.0,82,0.00,,OVC080,0.00,0.00,VWS V14.01,2013-02-02 12:12:00,
2013-02-02 06:17:00,22.4,17.8,29.13,SE,140,0.0,2.0,82,0.00,,OVC080,0.00,0.00,VWS V14.01,2013-02-02 12:17:00,
2013-02-02 06:18:00,22.4,17.5,29.13,SE,140,1.0,1.0,81,0.00,,OVC080,0.00,0.00,VWS V14.01,2013-02-02 12:18:00,
2013-02-02 06:22:00,22.4,17.8,29.14,SSE,148,0.0,4.0,82,0.00,,OVC080,0.00,0.00,VWS V14.01,2013-02-02 12:22:00,
2013-02-02 06:25:00,22.4,17.8,29.14,SSW,204,0.0,4.0,82,0.00,,OVC080,0.00,0.00,VWS V14.01,2013-02-02 12:25:00,
2013-02-02 06:26:00,22.4,17.5,29.13,SSW,204,0.0,1.0,81,0.00,,OVC080,0.00,0.00,VWS V14.01,2013-02-02 12:26:00,
2013-02-02 06:28:00,22.5,17.6,29.13,SE,144,0.0,4.0,81,0.00,,OVC080,0.00,0.00,VWS V14.01,2013-02-02 12:28:00,
2013-02-02 06:29:00,22.5,17.6,29.14,ESE,117,0.0,2.0,81,0.00,,OVC080,0.00,0.00,VWS V14.01,2013-02-02 12:29:00,
2013-02-02 06:30:00,22.5,17.6,29.13,WSW,252,1.0,2.0,81,0.00,,OVC080,0.00,0.00,VWS V14.01,2013-02-02 12:30:00,
2013-02-02 06:32:00,22.5,17.6,29.13,SW,236,2.0,3.0,81,0.00,,OVC075,0.00,0.00,VWS V14.01,2013-02-02 12:32:00,
2013-02-02 06:34:00,22.5,17.6,29.13,WSW,244,0.0,2.0,81,0.00,,OVC075,0.00,0.00,VWS V14.01,2013-02-02 12:34:00,
2013-02-02 06:37:00,22.5,17.6,29.13,South,183,0.0,1.0,81,0.00,,OVC075,0.00,0.00,VWS V14.01,2013-02-02 12:37:00,
2013-02-02 06:39:00,22.6,17.7,29.14,West,269,3.0,3.0,81,0.00,,OVC075,0.00,0.00,VWS V14.01,2013-02-02 12:39:00,
2013-02-02 06:41:00,22.6,17.7,29.14,WSW,249,0.0,1.0,81,0.00,,OVC075,0.00,0.00,VWS V14.01,2013-02-02 12:41:00,
2013-02-02 06:43:00,22.6,17.7,29.14,ESE,117,0.0,2.0,81,0.00,,OVC075,0.00,0.00,VWS V14.01,2013-02-02 12:43:00,
2013-02-02 06:46:00,22.7,17.8,29.14,SW,229,0.0,3.0,81,0.00,,OVC075,0.00,0.00,VWS V14.01,2013-02-02 12:46:00,
2013-02-02 06:48:00,22.7,17.8,29.14,SW,229,0.0,0.0,81,0.00,,OVC075,0.00,0.00,VWS V14.01,2013-02-02 12:48:00,
2013-02-02 06:49:00,22.7,17.8,29.14,NNW,347,0.0,2.0,81,0.00,,OVC075,0.00,0.00,VWS V14.01,2013-02-02 12:49:00,
2013-02-02 06:55:00,22.7,17.8,29.14,ESE,108,0.0,1.0,81,0.00,,OVC075,0.00,0.00,VWS V14.01,2013-02-02 12:55:00,
2013-02-02 06:56:00,22.7,17.8,29.14,ESE,109,0.0,2.0,81,0.00,,OVC075,0.00,0.00,VWS V14.01,2013-02-02 12:56:00,
2013-02-02 07:00:00,22.7,18.0,29.14,SW,230,1.0,3.0,82,0.00,,OVC075,0.00,0.00,VWS V14.01,2013-02-02 13:00:00,
2013-02-02 07:01:00,22.7,18.0,29.14,West,260,1.0,2.0,82,0.00,,OVC075,0.00,0.00,VWS V14.01,2013-02-02 13:01:00,
2013-02-02 07:06:00,22.8,18.1,29.14,SW,231,2.0,3.0,82,0.00,,OVC075,0.00,0.00,VWS V14.01,2013-02-02 13:06:00,
2013-02-02 07:07:00,22.7,18.0,29.14,WSW,242,2.0,5.0,82,0.00,,OVC075,0.00,0.00,VWS V14.01,2013-02-02 13:07:00,
2013-02-02 07:08:00,22.7,18.0,29.14,WSW,242,1.0,2.0,82,0.00,,OVC075,0.00,0.00,VWS V14.01,2013-02-02 13:08:00,
2013-02-02 07:11:00,22.8,18.1,29.14,WSW,257,0.0,4.0,82,0.00,,OVC075,0.00,0.00,VWS V14.01,2013-02-02 13:11:00,
2013-02-02 07:13:00,22.8,18.1,29.14,WSW,256,0.0,1.0,82,0.00,,OVC075,0.00,0.00,VWS V14.01,2013-02-02 13:13:00,
2013-02-02 07:14:00,22.8,18.1,29.14,WSW,245,0.0,3.0,82,0.00,,OVC075,0.00,0.00,VWS V14.01,2013-02-02 13:14:00,
2013-02-02 07:18:00,22.8,18.4,29.14,South,173,2.0,2.0,83,0.00,,OVC075,0.00,5.00,VWS V14.01,2013-02-02 13:18:00,
2013-02-02 07:19:00,22.8,18.4,29.14,SW,217,5.0,9.0,83,0.00,,OVC075,0.00,5.00,VWS V14.01,2013-02-02 13:19:00,
2013-02-02 07:23:00,22.9,18.2,29.14,SSW,213,0.0,5.0,82,0.00,,OVC075,0.00,7.00,VWS V14.01,2013-02-02 13:23:00,
2013-02-02 07:24:00,23.0,18.3,29.14,SSW,213,1.0,3.0,82,0.00,,OVC075,0.00,9.00,VWS V14.01,2013-02-02 13:24:00,
2013-02-02 07:26:00,23.0,18.3,29.14,SSW,203,3.0,5.0,82,0.00,,OVC075,0.00,11.00,VWS V14.01,2013-02-02 13:26:00,
2013-02-02 07:29:00,23.1,18.4,29.14,SW,224,3.0,5.0,82,0.00,,OVC075,0.00,14.00,VWS V14.01,2013-02-02 13:29:00,
2013-02-02 07:31:00,23.1,18.4,29.14,WSW,240,0.0,3.0,82,0.00,,OVC035,0.00,14.00,VWS V14.01,2013-02-02 13:31:00,
2013-02-02 07:33:00,23.1,18.4,29.14,SSW,194,0.0,1.0,82,0.00,,OVC035,0.00,12.00,VWS V14.01,2013-02-02 13:33:00,
2013-02-02 07:36:00,23.2,18.5,29.14,WSW,241,3.0,4.0,82,0.00,,OVC035,0.00,14.00,VWS V14.01,2013-02-02 13:36:00,
2013-02-02 07:37:00,23.2,18.5,29.14,SW,224,2.0,3.0,82,0.00,,OVC035,0.00,12.00,VWS V14.01,2013-02-02 13:37:00,
2013-02-02 07:38:00,23.2,18.5,29.14,SW,223,0.0,2.0,82,0.00,,OVC035,0.00,12.00,VWS V14.01,2013-02-02 13:38:00,
2013-02-02 07:43:00,23.2,18.8,29.14,WSW,239,0.0,4.0,83,0.00,,OVC035,0.00,14.00,VWS V14.01,2013-02-02 13:43:00,
2013-02-02 07:46:00,23.3,18.9,29.14,SSW,206,3.0,3.0,83,0.00,,OVC035,0.00,16.00,VWS V14.01,2013-02-02 13:46:00,
2013-02-02 07:48:00,23.3,18.9,29.13,SW,233,0.0,0.0,83,0.00,,OVC035,0.00,18.00,VWS V14.01,2013-02-02 13:48:00,
2013-02-02 07:49:00,23.3,18.9,29.14,SW,219,4.0,4.0,83,0.00,,OVC035,0.00,18.00,VWS V14.01,2013-02-02 13:49:00,
2013-02-02 07:51:00,23.3,18.9,29.13,WSW,243,0.0,4.0,83,0.00,,OVC035,0.00,19.00,VWS V14.01,2013-02-02 13:51:00,
2013-02-02 07:52:00,23.3,18.9,29.13,SSW,213,3.0,3.0,83,0.00,,OVC035,0.00,21.00,VWS V14.01,2013-02-02 13:52:00,
2013-02-02 07:53:00,23.3,18.9,29.13,WSW,250,3.0,3.0,83,0.00,,OVC035,0.00,21.00,VWS V14.01,2013-02-02 13:53:00,
2013-02-02 07:57:00,23.4,19.0,29.13,SW,221,1.0,4.0,83,0.00,,OVC035,0.00,28.00,VWS V14.01,2013-02-02 13:57:00,
2013-02-02 07:58:00,23.4,19.0,29.13,SW,221,0.0,3.0,83,0.00,,OVC035,0.00,30.00,VWS V14.01,2013-02-02 13:58:00,
2013-02-02 08:00:00,23.4,19.3,29.13,SW,234,1.0,4.0,84,0.00,,OVC035,0.00,33.00,VWS V14.01,2013-02-02 14:00:00,
2013-02-02 08:04:00,23.4,19.3,29.13,SW,223,2.0,2.0,84,0.00,,,0.00,37.00,VWS V14.01,2013-02-02 14:04:00,
2013-02-02 08:05:00,23.5,19.4,29.13,WSW,250,1.0,5.0,84,0.00,,,0.00,37.00,VWS V14.01,2013-02-02 14:05:00,
2013-02-02 08:06:00,23.5,19.1,29.13,WSW,250,1.0,2.0,83,0.00,,,0.00,37.00,VWS V14.01,2013-02-02 14:06:00,
2013-02-02 08:09:00,23.5,19.4,29.13,SSW,201,1.0,3.0,84,0.00,,,0.00,40.00,VWS V14.01,2013-02-02 14:09:00,
2013-02-02 08:11:00,23.6,19.5,29.13,SW,232,0.0,4.0,84,0.00,,,0.00,40.00,VWS V14.01,2013-02-02 14:11:00,
2013-02-02 08:12:00,23.6,19.5,29.13,SW,223,3.0,3.0,84,0.00,,,0.00,40.00,VWS V14.01,2013-02-02 14:12:00,
2013-02-02 08:14:00,23.6,19.2,29.13,SSW,208,2.0,3.0,83,0.00,,,0.00,40.00,VWS V14.01,2013-02-02 14:14:00,
2013-02-02 08:17:00,23.7,19.3,29.13,SW,220,1.0,2.0,83,0.00,,,0.00,39.00,VWS V14.01,2013-02-02 14:17:00,
2013-02-02 08:19:00,23.7,19.3,29.13,SW,214,0.0,3.0,83,0.00,,,0.00,37.00,VWS V14.01,2013-02-02 14:19:00,
2013-02-02 08:22:00,23.8,19.4,29.13,SW,227,2.0,5.0,83,0.00,,,0.00,37.00,VWS V14.01,2013-02-02 14:22:00,
2013-02-02 08:23:00,23.8,19.4,29.13,SW,227,1.0,2.0,83,0.00,,,0.00,37.00,VWS V14.01,2013-02-02 14:23:00,
2013-02-02 08:24:00,23.8,19.4,29.13,SW,227,0.0,2.0,83,0.00,,,0.00,35.00,VWS V14.01,2013-02-02 14:24:00,
2013-02-02 08:29:00,23.9,19.5,29.13,SW,227,0.0,1.0,83,0.00,,,0.00,32.00,VWS V14.01,2013-02-02 14:29:00,
2013-02-02 08:30:00,23.9,19.5,29.13,SW,227,1.0,2.0,83,0.00,,,0.00,32.00,VWS V14.01,2013-02-02 14:30:00,
2013-02-02 08:31:00,23.9,19.5,29.13,SSW,206,0.0,3.0,83,0.00,,,0.00,32.00,VWS V14.01,2013-02-02 14:31:00,
2013-02-02 08:34:00,24.0,19.6,29.13,South,178,0.0,1.0,83,0.00,,,0.00,35.00,VWS V14.01,2013-02-02 14:34:00,
2013-02-02 08:36:00,24.0,19.6,29.13,South,178,0.0,0.0,83,0.00,,,0.00,39.00,VWS V14.01,2013-02-02 14:36:00,
2013-02-02 08:39:00,24.1,19.7,29.13,WSW,240,1.0,5.0,83,0.00,,,0.00,46.00,VWS V14.01,2013-02-02 14:39:00,
2013-02-02 08:41:00,24.1,19.7,29.13,WSW,237,1.0,3.0,83,0.00,,,0.00,47.00,VWS V14.01,2013-02-02 14:41:00,
2013-02-02 08:42:00,24.1,19.7,29.13,SW,231,3.0,8.0,83,0.00,,,0.00,49.00,VWS V14.01,2013-02-02 14:42:00,
2013-02-02 08:45:00,24.1,19.7,29.12,SW,232,2.0,4.0,83,0.00,,,0.00,56.00,VWS V14.01,2013-02-02 14:45:00,
2013-02-02 08:47:00,24.2,19.8,29.12,SSW,207,6.0,7.0,83,0.00,,,0.00,54.00,VWS V14.01,2013-02-02 14:47:00,
2013-02-02 08:48:00,24.2,19.8,29.13,NW,304,1.0,6.0,83,0.00,,,0.00,53.00,VWS V14.01,2013-02-02 14:48:00,
2013-02-02 08:53:00,24.3,19.9,29.12,WSW,238,3.0,3.0,83,0.00,,,0.00,58.00,VWS V14.01,2013-02-02 14:53:00,
2013-02-02 08:54:00,24.3,20.2,29.12,SW,232,3.0,5.0,84,0.00,,,0.00,60.00,VWS V14.01,2013-02-02 14:54:00,
2013-02-02 08:56:00,24.4,20.3,29.12,SW,227,0.0,3.0,84,0.00,,,0.00,58.00,VWS V14.01,2013-02-02 14:56:00,
2013-02-02 08:58:00,24.4,20.3,29.12,SW,217,0.0,2.0,84,0.00,,,0.00,58.00,VWS V14.01,2013-02-02 14:58:00,
2013-02-02 08:59:00,24.5,20.4,29.12,NW,312,2.0,3.0,84,0.00,,,0.00,58.00,VWS V14.01,2013-02-02 14:59:00,
2013-02-02 09:02:00,24.5,20.4,29.12,NW,304,3.0,4.0,84,0.00,,,0.00,54.00,VWS V14.01,2013-02-02 15:02:00,
2013-02-02 09:05:00,24.7,20.6,29.13,SW,214,0.0,4.0,84,0.00,,,0.00,42.00,VWS V14.01,2013-02-02 15:05:00,
2013-02-02 09:08:00,24.7,20.6,29.12,SSW,200,0.0,2.0,84,0.00,,,0.00,32.00,VWS V14.01,2013-02-02 15:08:00,
2013-02-02 09:11:00,24.7,20.6,29.13,WNW,300,1.0,4.0,84,0.00,,,0.00,39.00,VWS V14.01,2013-02-02 15:11:00,
2013-02-02 09:12:00,24.7,20.6,29.13,WNW,298,3.0,3.0,84,0.00,,,0.00,53.00,VWS V14.01,2013-02-02 15:12:00,
2013-02-02 09:13:00,24.7,20.6,29.13,SW,232,3.0,4.0,84,0.00,,,0.00,67.00,VWS V14.01,2013-02-02 15:13:00,
2013-02-02 09:16:00,24.8,20.7,29.12,NW,309,1.0,2.0,84,0.00,,,0.00,84.00,VWS V14.01,2013-02-02 15:16:00,
2013-02-02 09:18:00,24.9,20.8,29.12,SW,218,4.0,5.0,84,0.00,,,0.00,90.00,VWS V14.01,2013-02-02 15:18:00,
2013-02-02 09:20:00,25.0,20.9,29.12,WNW,296,3.0,6.0,84,0.00,,,0.00,84.00,VWS V14.01,2013-02-02 15:20:00,
2013-02-02 09:22:00,25.0,20.9,29.12,West,269,1.0,3.0,84,0.00,,,0.00,93.00,VWS V14.01,2013-02-02 15:22:00,
2013-02-02 09:24:00,25.1,21.0,29.12,West,259,2.0,2.0,84,0.00,,,0.00,90.00,VWS V14.01,2013-02-02 15:24:00,
2013-02-02 09:25:00,25.2,21.0,29.12,NW,315,0.0,4.0,84,0.00,,,0.00,83.00,VWS V14.01,2013-02-02 15:25:00,
2013-02-02 09:28:00,25.2,21.0,29.12,SW,232,0.0,3.0,84,0.00,,,0.00,63.00,VWS V14.01,2013-02-02 15:28:00,
2013-02-02 09:31:00,25.3,21.1,29.12,NW,304,1.0,5.0,84,0.00,,,0.00,65.00,VWS V14.01,2013-02-02 15:31:00,
2013-02-02 09:32:00,25.3,21.1,29.12,WNW,299,3.0,3.0,84,0.00,,,0.00,70.00,VWS V14.01,2013-02-02 15:32:00,
2013-02-02 09:34:00,25.3,21.1,29.12,WNW,302,2.0,6.0,84,0.00,,,0.00,83.00,VWS V14.01,2013-02-02 15:34:00,
2013-02-02 09:35:00,25.3,21.1,29.12,NW,311,0.0,3.0,84,0.00,,,0.00,86.00,VWS V14.01,2013-02-02 15:35:00,
2013-02-02 09:37:00,25.4,21.2,29.12,WNW,300,2.0,4.0,84,0.00,,,0.00,86.00,VWS V14.01,2013-02-02 15:37:00,
2013-02-02 09:39:00,25.5,21.4,29.12,WNW,297,3.0,3.0,84,0.00,,,0.00,90.00,VWS V14.01,2013-02-02 15:39:00,
2013-02-02 09:40:00,25.5,21.4,29.12,WNW,292,4.0,5.0,84,0.00,,,0.00,95.00,VWS V14.01,2013-02-02 15:40:00,
2013-02-02 09:42:00,25.6,21.5,29.12,West,265,0.0,11.0,84,0.00,,,0.00,90.00,VWS V14.01,2013-02-02 15:42:00,
2013-02-02 09:44:00,25.6,21.5,29.12,NW,310,3.0,4.0,84,0.00,,,0.00,88.00,VWS V14.01,2013-02-02 15:44:00,
2013-02-02 09:45:00,25.7,21.5,29.12,NW,306,4.0,5.0,84,0.00,,,0.00,95.00,VWS V14.01,2013-02-02 15:45:00,
2013-02-02 09:50:00,25.8,21.6,29.12,NW,309,2.0,6.0,84,0.00,,,0.00,91.00,VWS V14.01,2013-02-02 15:50:00,
2013-02-02 09:52:00,25.9,21.7,29.13,NW,309,0.0,6.0,84,0.00,,,0.00,95.00,VWS V14.01,2013-02-02 15:52:00,
2013-02-02 09:55:00,26.0,21.8,29.13,NW,309,2.0,5.0,84,0.00,,,0.00,81.00,VWS V14.01,2013-02-02 15:55:00,
2013-02-02 09:56:00,26.0,21.8,29.12,NW,309,0.0,4.0,84,0.00,,,0.00,93.00,VWS V14.01,2013-02-02 15:56:00,
2013-02-02 09:57:00,26.0,21.8,29.12,NW,309,0.0,0.0,84,0.00,,,0.00,100.00,VWS V14.01,2013-02-02 15:57:00,
2013-02-02 09:59:00,26.1,21.9,29.12,NW,307,0.0,3.0,84,0.00,,,0.00,98.00,VWS V14.01,2013-02-02 15:59:00,
2013-02-02 10:01:00,26.2,22.0,29.12,WNW,295,8.0,8.0,84,0.00,,,0.00,95.00,VWS V14.01,2013-02-02 16:01:00,
2013-02-02 10:04:00,26.2,22.0,29.12,WNW,290,5.0,6.0,84,0.00,,,0.00,105.00,VWS V14.01,2013-02-02 16:04:00,
2013-02-02 10:07:00,26.2,22.0,29.12,NW,317,3.0,3.0,84,0.00,,,0.00,107.00,VWS V14.01,2013-02-02 16:07:00,
2013-02-02 10:08:00,26.3,22.1,29.13,WNW,292,2.0,4.0,84,0.00,,,0.00,111.00,VWS V14.01,2013-02-02 16:08:00,
2013-02-02 10:10:00,26.3,22.1,29.12,NW,304,2.0,2.0,84,0.00,,,0.00,105.00,VWS V14.01,2013-02-02 16:10:00,
2013-02-02 10:12:00,26.5,22.3,29.12,SW,218,2.0,4.0,84,0.00,,,0.00,111.00,VWS V14.01,2013-02-02 16:12:00,
2013-02-02 10:16:00,26.6,22.4,29.13,WNW,299,0.0,5.0,84,0.00,,,0.00,109.00,VWS V14.01,2013-02-02 16:16:00,
2013-02-02 10:18:00,26.6,22.1,29.12,West,279,1.0,8.0,83,0.00,,,0.00,121.00,VWS V14.01,2013-02-02 16:18:00,
2013-02-02 10:19:00,26.6,22.1,29.12,NNW,335,2.0,5.0,83,0.00,,,0.00,123.00,VWS V14.01,2013-02-02 16:19:00,
2013-02-02 10:20:00,26.6,22.1,29.13,NW,306,3.0,3.0,83,0.00,,,0.00,121.00,VWS V14.01,2013-02-02 16:20:00,
2013-02-02 10:24:00,26.7,22.2,29.12,WNW,301,2.0,4.0,83,0.00,,,0.00,127.00,VWS V14.01,2013-02-02 16:24:00,
2013-02-02 10:25:00,26.7,22.2,29.12,NW,314,3.0,3.0,83,0.00,,,0.00,128.00,VWS V14.01,2013-02-02 16:25:00,
2013-02-02 10:26:00,26.7,22.2,29.12,WNW,288,3.0,5.0,83,0.00,,,0.00,127.00,VWS V14.01,2013-02-02 16:26:00,
2013-02-02 10:29:00,26.8,22.3,29.13,NW,307,0.0,5.0,83,0.00,,,0.00,109.00,VWS V14.01,2013-02-02 16:29:00,
2013-02-02 10:31:00,26.9,22.4,29.13,WNW,286,4.0,9.0,83,0.00,,,0.00,111.00,VWS V14.01,2013-02-02 16:31:00,
2013-02-02 10:34:00,26.9,22.4,29.13,WNW,291,3.0,3.0,83,0.00,,,0.00,98.00,VWS V14.01,2013-02-02 16:34:00,
2013-02-02 10:36:00,26.9,22.4,29.13,NW,310,2.0,4.0,83,0.00,,,0.00,116.00,VWS V14.01,2013-02-02 16:36:00,
2013-02-02 10:41:00,27.1,22.4,29.13,West,273,1.0,6.0,82,0.00,,,0.00,107.00,VWS V14.01,2013-02-02 16:41:00,
2013-02-02 10:42:00,27.1,22.4,29.13,WSW,254,5.0,8.0,82,0.00,,,0.00,105.00,VWS V14.01,2013-02-02 16:42:00,
2013-02-02 10:43:00,27.1,22.4,29.13,NW,316,4.0,5.0,82,0.00,,,0.00,105.00,VWS V14.01,2013-02-02 16:43:00,
2013-02-02 10:45:00,27.1,22.4,29.13,SW,229,2.0,3.0,82,0.00,,,0.00,111.00,VWS V14.01,2013-02-02 16:45:00,
2013-02-02 10:48:00,27.1,22.4,29.13,NW,310,0.0,2.0,82,0.00,,,0.00,109.00,VWS V14.01,2013-02-02 16:48:00,
2013-02-02 10:51:00,27.2,22.4,29.13,NW,322,2.0,5.0,82,0.00,,,0.00,132.00,VWS V14.01,2013-02-02 16:51:00,
2013-02-02 10:53:00,27.3,22.5,29.13,NW,320,3.0,6.0,82,0.00,,,0.00,86.00,VWS V14.01,2013-02-02 16:53:00,
2013-02-02 10:54:00,27.3,22.5,29.13,West,280,3.0,3.0,82,0.00,,,0.00,76.00,VWS V14.01,2013-02-02 16:54:00,
2013-02-02 10:57:00,27.4,22.6,29.13,WNW,303,1.0,3.0,82,0.00,,,0.00,81.00,VWS V14.01,2013-02-02 16:57:00,
2013-02-02 10:58:00,27.4,22.6,29.13,WNW,287,2.0,3.0,82,0.00,,,0.00,81.00,VWS V14.01,2013-02-02 16:58:00,
2013-02-02 11:00:00,27.4,22.4,29.13,SW,230,4.0,4.0,81,0.00,,,0.00,67.00,VWS V14.01,2013-02-02 17:00:00,
2013-02-02 11:01:00,27.4,22.4,29.13,SW,230,3.0,4.0,81,0.00,,OVC010,0.00,74.00,VWS V14.01,2013-02-02 17:01:00,
2013-02-02 11:02:00,27.4,22.4,29.13,NW,310,0.0,4.0,81,0.00,,OVC010,0.00,76.00,VWS V14.01,2013-02-02 17:02:00,
2013-02-02 11:06:00,27.4,22.0,29.13,WNW,302,0.0,7.0,80,0.00,,OVC010,0.00,76.00,VWS V14.01,2013-02-02 17:06:00,
2013-02-02 11:07:00,27.3,22.0,29.13,NW,322,3.0,3.0,80,0.00,,OVC010,0.00,74.00,VWS V14.01,2013-02-02 17:07:00,
2013-02-02 11:11:00,27.2,21.9,29.13,NW,326,3.0,7.0,80,0.00,,OVC010,0.00,62.00,VWS V14.01,2013-02-02 17:11:00,
2013-02-02 11:12:00,27.2,21.9,29.13,West,263,2.0,4.0,80,0.00,,OVC010,0.00,60.00,VWS V14.01,2013-02-02 17:12:00,
2013-02-02 11:13:00,27.2,21.9,29.13,WNW,288,2.0,3.0,80,0.00,,OVC010,0.00,54.00,VWS V14.01,2013-02-02 17:13:00,
2013-02-02 11:16:00,27.1,21.8,29.13,WNW,298,2.0,4.0,80,0.00,,OVC010,0.00,47.00,VWS V14.01,2013-02-02 17:16:00,
2013-02-02 11:17:00,27.1,21.8,29.13,WNW,294,2.0,6.0,80,0.00,,OVC010,0.00,46.00,VWS V14.01,2013-02-02 17:17:00,
2013-02-02 11:18:00,27.1,21.8,29.13,NNE,31,0.0,4.0,80,0.00,,OVC010,0.00,47.00,VWS V14.01,2013-02-02 17:18:00,
2013-02-02 11:21:00,27.0,21.7,29.13,NW,313,3.0,11.0,80,0.00,,OVC010,0.00,60.00,VWS V14.01,2013-02-02 17:21:00,
2013-02-02 11:26:00,27.0,21.7,29.13,NNW,333,1.0,3.0,80,0.00,,OVC010,0.00,74.00,VWS V14.01,2013-02-02 17:26:00,
2013-02-02 11:27:00,27.1,21.8,29.13,NW,311,1.0,3.0,80,0.00,,OVC010,0.00,76.00,VWS V14.01,2013-02-02 17:27:00,
2013-02-02 11:28:00,27.1,21.8,29.13,NW,315,4.0,7.0,80,0.00,,OVC010,0.00,83.00,VWS V14.01,2013-02-02 17:28:00,
2013-02-02 11:30:00,27.1,21.8,29.12,NW,317,4.0,7.0,80,0.00,,OVC010,0.00,74.00,VWS V14.01,2013-02-02 17:30:00,
2013-02-02 11:34:00,27.0,21.4,29.13,NW,313,2.0,6.0,79,0.00,,OVC010,0.00,76.00,VWS V14.01,2013-02-02 17:34:00,
2013-02-02 11:35:00,27.1,21.5,29.13,WNW,298,4.0,6.0,79,0.00,,OVC010,0.00,76.00,VWS V14.01,2013-02-02 17:35:00,
2013-02-02 11:40:00,27.0,21.4,29.12,NW,323,2.0,2.0,79,0.00,,OVC010,0.00,58.00,VWS V14.01,2013-02-02 17:40:00,
2013-02-02 11:41:00,27.0,21.4,29.12,NW,323,2.0,2.0,79,0.00,,OVC010,0.00,54.00,VWS V14.01,2013-02-02 17:41:00,
2013-02-02 11:42:00,27.1,21.5,29.12,WNW,286,3.0,4.0,79,0.00,,OVC010,0.00,53.00,VWS V14.01,2013-02-02 17:42:00,
2013-02-02 11:43:00,27.1,21.5,29.12,NW,307,3.0,4.0,79,0.00,,OVC010,0.00,54.00,VWS V14.01,2013-02-02 17:43:00,
2013-02-02 11:45:00,27.1,21.5,29.12,WNW,284,3.0,7.0,79,0.00,,OVC010,0.00,47.00,VWS V14.01,2013-02-02 17:45:00,
2013-02-02 11:47:00,27.1,21.5,29.12,NW,315,1.0,4.0,79,0.00,,OVC010,0.00,46.00,VWS V14.01,2013-02-02 17:47:00,
2013-02-02 11:48:00,27.1,21.5,29.12,NW,312,3.0,3.0,79,0.00,,OVC010,0.00,53.00,VWS V14.01,2013-02-02 17:48:00,
2013-02-02 11:52:00,27.1,21.8,29.12,NW,310,0.0,3.0,80,0.00,,OVC010,0.00,58.00,VWS V14.01,2013-02-02 17:52:00,
2013-02-02 11:53:00,27.1,21.8,29.12,WNW,295,4.0,7.0,80,0.00,,OVC010,0.00,56.00,VWS V14.01,2013-02-02 17:53:00,
2013-02-02 11:54:00,27.1,21.5,29.12,NW,314,2.0,5.0,79,0.00,,OVC010,0.00,56.00,VWS V14.01,2013-02-02 17:54:00,
2013-02-02 11:58:00,27.1,21.8,29.12,NW,313,1.0,4.0,80,0.00,,OVC010,0.00,54.00,VWS V14.01,2013-02-02 17:58:00,
2013-02-02 11:59:00,27.0,21.7,29.12,NW,313,1.0,1.0,80,0.00,,OVC010,0.00,51.00,VWS V14.01,2013-02-02 17:59:00,
2013-02-02 12:00:00,27.1,21.8,29.12,NW,317,2.0,3.0,80,0.00,,OVC010,0.00,47.00,VWS V14.01,2013-02-02 18:00:00,
2013-02-02 12:03:00,27.1,21.8,29.12,WNW,303,8.0,8.0,80,0.00,,OVC015,0.00,67.00,VWS V14.01,2013-02-02 18:03:00,
2013-02-02 12:04:00,27.0,21.7,29.12,NNW,330,2.0,8.0,80,0.00,,OVC015,0.00,67.00,VWS V14.01,2013-02-02 18:04:00,
2013-02-02 12:07:00,27.0,21.7,29.12,WNW,300,3.0,4.0,80,0.00,,OVC015,0.00,69.00,VWS V14.01,2013-02-02 18:07:00,
2013-02-02 12:09:00,27.0,21.7,29.12,NW,323,5.0,5.0,80,0.00,,OVC015,0.00,62.00,VWS V14.01,2013-02-02 18:09:00,
2013-02-02 12:10:00,27.0,21.7,29.12,West,270,3.0,6.0,80,0.00,,OVC015,0.00,58.00,VWS V14.01,2013-02-02 18:10:00,
2013-02-02 12:12:00,27.0,21.7,29.12,North,355,2.0,6.0,80,0.00,,OVC015,0.00,58.00,VWS V14.01,2013-02-02 18:12:00,
2013-02-02 12:13:00,27.0,21.7,29.12,NW,309,3.0,4.0,80,0.00,,OVC015,0.00,58.00,VWS V14.01,2013-02-02 18:13:00,
2013-02-02 12:16:00,27.0,21.7,29.12,WNW,287,3.0,5.0,80,0.00,,OVC015,0.00,60.00,VWS V14.01,2013-02-02 18:16:00,
2013-02-02 12:20:00,27.0,21.7,29.12,WNW,286,2.0,3.0,80,0.00,,OVC015,0.00,53.00,VWS V14.01,2013-02-02 18:20:00,
2013-02-02 12:22:00,27.0,21.7,29.12,NW,319,2.0,9.0,80,0.00,,OVC015,0.00,60.00,VWS V14.01,2013-02-02 18:22:00,
2013-02-02 12:23:00,27.0,21.7,29.12,WNW,297,2.0,3.0,80,0.00,,OVC015,0.00,62.00,VWS V14.01,2013-02-02 18:23:00,
2013-02-02 12:26:00,27.0,21.7,29.12,NW,314,1.0,6.0,80,0.00,,OVC015,0.00,56.00,VWS V14.01,2013-02-02 18:26:00,
2013-02-02 12:28:00,27.0,21.7,29.12,NW,315,2.0,6.0,80,0.00,,OVC015,0.00,49.00,VWS V14.01,2013-02-02 18:28:00,
2013-02-02 12:29:00,27.0,21.4,29.12,WNW,296,0.0,5.0,79,0.00,,OVC015,0.00,49.00,VWS V14.01,2013-02-02 18:29:00,
2013-02-02 12:32:00,27.0,21.4,29.12,NNW,331,3.0,7.0,79,0.00,,OVC015,0.00,47.00,VWS V14.01,2013-02-02 18:32:00,
2013-02-02 12:34:00,27.0,21.4,29.12,NW,306,5.0,6.0,79,0.00,,OVC015,0.00,46.00,VWS V14.01,2013-02-02 18:34:00,
2013-02-02 12:37:00,27.0,21.4,29.12,NW,314,1.0,3.0,79,0.00,,OVC015,0.00,51.00,VWS V14.01,2013-02-02 18:37:00,
2013-02-02 12:38:00,27.0,21.4,29.11,NNW,331,5.0,5.0,79,0.00,,OVC015,0.00,62.00,VWS V14.01,2013-02-02 18:38:00,
2013-02-02 12:41:00,27.1,21.5,29.12,WNW,292,0.0,1.0,79,0.00,,OVC015,0.00,56.00,VWS V14.01,2013-02-02 18:41:00,
2013-02-02 12:42:00,27.1,21.5,29.12,NW,314,3.0,7.0,79,0.00,,OVC015,0.00,54.00,VWS V14.01,2013-02-02 18:42:00,
2013-02-02 12:43:00,27.1,21.5,29.12,NW,321,4.0,7.0,79,0.00,,OVC015,0.00,60.00,VWS V14.01,2013-02-02 18:43:00,
2013-02-02 12:47:00,27.0,21.4,29.12,NW,317,3.0,5.0,79,0.00,,OVC015,0.00,53.00,VWS V14.01,2013-02-02 18:47:00,
2013-02-02 12:48:00,27.0,21.4,29.12,WSW,252,3.0,3.0,79,0.00,,OVC015,0.00,53.00,VWS V14.01,2013-02-02 18:48:00,
2013-02-02 12:52:00,27.0,21.4,29.12,NW,318,0.0,2.0,79,0.00,,OVC015,0.00,62.00,VWS V14.01,2013-02-02 18:52:00,
2013-02-02 12:54:00,27.1,21.5,29.12,NNW,346,0.0,0.0,79,0.00,,OVC015,0.00,65.00,VWS V14.01,2013-02-02 18:54:00,
2013-02-02 12:55:00,27.1,21.5,29.12,NNW,346,0.0,1.0,79,0.00,,OVC015,0.00,62.00,VWS V14.01,2013-02-02 18:55:00,
2013-02-02 12:58:00,27.1,21.5,29.12,WNW,297,3.0,5.0,79,0.00,,OVC015,0.00,42.00,VWS V14.01,2013-02-02 18:58:00,
2013-02-02 12:59:00,27.1,21.5,29.12,NW,313,5.0,10.0,79,0.00,,OVC015,0.00,46.00,VWS V14.01,2013-02-02 18:59:00,
2013-02-02 13:00:00,27.0,21.1,29.13,WNW,288,8.0,8.0,78,0.00,,OVC015,0.00,56.00,VWS V14.01,2013-02-02 19:00:00,
2013-02-02 13:01:00,26.9,21.0,29.13,WNW,291,4.0,8.0,78,0.00,,OVC015,0.00,56.00,VWS V14.01,2013-02-02 19:01:00,
2013-02-02 13:03:00,26.5,20.6,29.13,West,273,5.0,8.0,78,0.00,,OVC015,0.00,58.00,VWS V14.01,2013-02-02 19:03:00,
2013-02-02 13:05:00,26.0,20.1,29.12,NW,309,4.0,6.0,78,0.00,,OVC015,0.00,72.00,VWS V14.01,2013-02-02 19:05:00,
2013-02-02 13:06:00,25.8,19.9,29.13,WNW,283,3.0,7.0,78,0.00,,OVC015,0.00,67.00,VWS V14.01,2013-02-02 19:06:00,
2013-02-02 13:10:00,25.2,19.6,29.12,WNW,298,2.0,7.0,79,0.00,,OVC015,0.00,67.00,VWS V14.01,2013-02-02 19:10:00,
2013-02-02 13:11:00,25.0,19.4,29.13,WNW,282,2.0,4.0,79,0.00,,OVC015,0.00,63.00,VWS V14.01,2013-02-02 19:11:00,
2013-02-02 13:13:00,24.8,19.5,29.13,NW,313,4.0,5.0,80,0.00,,OVC015,0.00,62.00,VWS V14.01,2013-02-02 19:13:00,
2013-02-02 13:16:00,24.6,19.3,29.12,WNW,297,2.0,3.0,80,0.00,,OVC015,0.00,63.00,VWS V14.01,2013-02-02 19:16:00,
2013-02-02 13:18:00,24.5,19.2,29.12,NW,314,0.0,2.0,80,0.00,,OVC015,0.00,63.00,VWS V14.01,2013-02-02 19:18:00,
2013-02-02 13:20:00,24.4,19.1,29.13,NW,310,2.0,4.0,80,0.00,,OVC015,0.00,49.00,VWS V14.01,2013-02-02 19:20:00,
2013-02-02 13:21:00,24.4,19.1,29.13,WNW,290,5.0,5.0,80,0.00,,OVC015,0.00,47.00,VWS V14.01,2013-02-02 19:21:00,
2013-02-02 13:23:00,24.3,19.0,29.13,NW,314,1.0,3.0,80,0.00,,OVC015,0.00,51.00,VWS V14.01,2013-02-02 19:23:00,
2013-02-02 13:25:00,24.2,19.2,29.13,NW,320,1.0,3.0,81,0.00,,OVC015,0.00,51.00,VWS V14.01,2013-02-02 19:25:00,
2013-02-02 13:28:00,23.9,18.6,29.13,West,281,0.0,3.0,80,0.00,,OVC015,0.00,47.00,VWS V14.01,2013-02-02 19:28:00,
2013-02-02 13:29:00,23.9,18.6,29.13,West,281,0.0,2.0,80,0.00,,OVC015,0.00,47.00,VWS V14.01,2013-02-02 19:29:00,
2013-02-02 13:30:00,23.7,18.5,29.13,NNW,334,3.0,4.0,80,0.00,,OVC015,0.00,47.00,VWS V14.01,2013-02-02 19:30:00,
2013-02-02 13:34:00,23.2,18.0,29.13,NE,44,0.0,0.0,80,0.00,,OVC015,0.00,47.00,VWS V14.01,2013-02-02 19:34:00,
2013-02-02 13:35:00,23.2,18.0,29.14,NNE,29,0.0,0.0,80,0.00,,OVC015,0.00,47.00,VWS V14.01,2013-02-02 19:35:00,
2013-02-02 13:36:00,23.1,17.9,29.14,WSW,257,2.0,3.0,80,0.00,,OVC015,0.00,46.00,VWS V14.01,2013-02-02 19:36:00,
2013-02-02 13:37:00,23.0,17.8,29.14,West,280,0.0,2.0,80,0.00,,OVC015,0.00,44.00,VWS V14.01,2013-02-02 19:37:00,
2013-02-02 13:40:00,22.8,17.9,29.14,WNW,292,1.0,2.0,81,0.00,,OVC015,0.00,44.00,VWS V14.01,2013-02-02 19:40:00,
2013-02-02 13:42:00,22.7,17.8,29.14,WNW,288,0.0,3.0,81,0.00,,OVC015,0.00,44.00,VWS V14.01,2013-02-02 19:42:00,
2013-02-02 13:43:00,22.7,17.8,29.14,NW,315,3.0,4.0,81,0.00,,OVC015,0.00,44.00,VWS V14.01,2013-02-02 19:43:00,
2013-02-02 13:47:00,22.5,17.6,29.14,ESE,105,0.0,1.0,81,0.00,,OVC015,0.00,46.00,VWS V14.01,2013-02-02 19:47:00,
2013-02-02 13:49:00,22.4,17.5,29.14,ESE,105,0.0,0.0,81,0.00,,OVC015,0.00,46.00,VWS V14.01,2013-02-02 19:49:00,
2013-02-02 13:52:00,22.3,17.4,29.14,NW,323,1.0,4.0,81,0.00,,OVC015,0.00,53.00,VWS V14.01,2013-02-02 19:52:00,
2013-02-02 13:55:00,22.2,17.3,29.14,NW,304,0.0,3.0,81,0.00,,OVC015,0.00,56.00,VWS V14.01,2013-02-02 19:55:00,
2013-02-02 13:56:00,22.2,17.3,29.14,NW,305,0.0,3.0,81,0.00,,OVC015,0.00,54.00,VWS V14.01,2013-02-02 19:56:00,
2013-02-02 13:57:00,22.1,17.2,29.14,NW,305,0.0,2.0,81,0.00,,OVC015,0.00,62.00,VWS V14.01,2013-02-02 19:57:00,
2013-02-02 14:00:00,22.1,17.2,29.14,NW,305,0.0,1.0,81,0.00,,OVC015,0.00,65.00,VWS V14.01,2013-02-02 20:00:00,
2013-02-02 14:02:00,22.1,17.5,29.14,NW,305,0.0,0.0,82,0.00,,,0.00,65.00,VWS V14.01,2013-02-02 20:02:00,
2013-02-02 14:03:00,22.1,17.5,29.14,ESE,113,0.0,2.0,82,0.00,,,0.00,63.00,VWS V14.01,2013-02-02 20:03:00,
2013-02-02 14:05:00,22.2,17.5,29.14,NW,308,5.0,6.0,82,0.00,,,0.00,76.00,VWS V14.01,2013-02-02 20:05:00,
2013-02-02 14:06:00,22.2,17.5,29.14,WNW,292,3.0,6.0,82,0.00,,,0.00,79.00,VWS V14.01,2013-02-02 20:06:00,
2013-02-02 14:08:00,22.2,17.5,29.14,NW,309,3.0,3.0,82,0.00,,,0.00,76.00,VWS V14.01,2013-02-02 20:08:00,
2013-02-02 14:12:00,22.4,17.8,29.14,NW,306,5.0,10.0,82,0.00,,,0.00,86.00,VWS V14.01,2013-02-02 20:12:00,
2013-02-02 14:13:00,22.5,17.6,29.14,NW,309,5.0,7.0,81,0.00,,,0.00,86.00,VWS V14.01,2013-02-02 20:13:00,
2013-02-02 14:15:00,22.5,17.6,29.14,NW,307,6.0,6.0,81,0.00,,,0.00,79.00,VWS V14.01,2013-02-02 20:15:00,
2013-02-02 14:16:00,22.5,17.3,29.14,NW,310,3.0,7.0,80,0.00,,,0.00,79.00,VWS V14.01,2013-02-02 20:16:00,
2013-02-02 14:17:00,22.6,17.4,29.14,WNW,299,4.0,6.0,80,0.00,,,0.00,77.00,VWS V14.01,2013-02-02 20:17:00,
2013-02-02 14:20:00,22.6,17.4,29.14,NW,306,1.0,4.0,80,0.00,,,0.00,86.00,VWS V14.01,2013-02-02 20:20:00,
2013-02-02 14:22:00,22.6,17.4,29.15,WNW,298,3.0,5.0,80,0.00,,,0.00,81.00,VWS V14.01,2013-02-02 20:22:00,
2013-02-02 14:23:00,22.7,17.5,29.15,WNW,296,3.0,6.0,80,0.00,,,0.00,74.00,VWS V14.01,2013-02-02 20:23:00,
2013-02-02 14:28:00,22.7,17.2,29.15,NW,307,1.0,3.0,79,0.00,,,0.00,62.00,VWS V14.01,2013-02-02 20:28:00,
2013-02-02 14:29:00,22.7,17.2,29.15,NW,307,1.0,2.0,79,0.00,,,0.00,62.00,VWS V14.01,2013-02-02 20:29:00,
2013-02-02 14:30:00,22.7,17.2,29.15,NW,308,3.0,4.0,79,0.00,,,0.00,63.00,VWS V14.01,2013-02-02 20:30:00,
2013-02-02 14:33:00,22.7,17.2,29.15,WNW,292,0.0,5.0,79,0.00,,,0.00,77.00,VWS V14.01,2013-02-02 20:33:00,
2013-02-02 14:35:00,22.7,16.9,29.15,NW,309,1.0,8.0,78,0.00,,,0.00,86.00,VWS V14.01,2013-02-02 20:35:00,
2013-02-02 14:37:00,22.7,16.9,29.15,NW,315,2.0,2.0,78,0.00,,,0.00,84.00,VWS V14.01,2013-02-02 20:37:00,
2013-02-02 14:38:00,22.7,16.9,29.16,WNW,290,4.0,7.0,78,0.00,,,0.00,81.00,VWS V14.01,2013-02-02 20:38:00,
2013-02-02 14:39:00,22.6,16.5,29.15,NW,305,6.0,9.0,77,0.00,,,0.00,83.00,VWS V14.01,2013-02-02 20:39:00,
2013-02-02 14:40:00,22.6,16.5,29.16,NW,304,2.0,7.0,77,0.00,,,0.00,83.00,VWS V14.01,2013-02-02 20:40:00,
2013-02-02 14:44:00,22.4,16.0,29.16,NW,314,1.0,4.0,76,0.00,,,0.00,91.00,VWS V14.01,2013-02-02 20:44:00,
2013-02-02 14:45:00,22.4,16.0,29.16,WNW,295,3.0,6.0,76,0.00,,,0.00,84.00,VWS V14.01,2013-02-02 20:45:00,
2013-02-02 14:47:00,22.3,15.6,29.16,WNW,292,1.0,5.0,75,0.00,,,0.00,53.00,VWS V14.01,2013-02-02 20:47:00,
2013-02-02 14:51:00,22.0,15.3,29.16,WNW,299,5.0,6.0,75,0.00,,,0.00,54.00,VWS V14.01,2013-02-02 20:51:00,
2013-02-02 14:52:00,22.0,15.3,29.16,WNW,292,4.0,6.0,75,0.00,,,0.00,56.00,VWS V14.01,2013-02-02 20:52:00,
2013-02-02 14:53:00,21.9,15.2,29.16,West,274,6.0,6.0,75,0.00,,,0.00,65.00,VWS V14.01,2013-02-02 20:53:00,
2013-02-02 14:57:00,21.4,14.7,29.17,NW,310,4.0,9.0,75,0.00,,,0.00,69.00,VWS V14.01,2013-02-02 20:57:00,
2013-02-02 14:59:00,21.2,14.5,29.17,NNW,336,1.0,6.0,75,0.00,,,0.00,88.00,VWS V14.01,2013-02-02 20:59:00,
2013-02-02 15:00:00,21.1,14.4,29.17,NNW,332,6.0,6.0,75,0.00,,,0.00,102.00,VWS V14.01,2013-02-02 21:00:00,
2013-02-02 15:01:00,21.0,14.3,29.17,West,281,4.0,7.0,75,0.00,,,0.00,120.00,VWS V14.01,2013-02-02 21:01:00,
2013-02-02 15:05:00,20.9,14.2,29.17,NW,311,5.0,8.0,75,0.00,,,0.00,234.00,VWS V14.01,2013-02-02 21:05:00,
2013-02-02 15:07:00,20.9,14.2,29.17,NW,305,1.0,7.0,75,0.00,,,0.00,185.00,VWS V14.01,2013-02-02 21:07:00,
2013-02-02 15:08:00,21.0,14.3,29.17,NW,309,2.0,8.0,75,0.00,,,0.00,202.00,VWS V14.01,2013-02-02 21:08:00,
2013-02-02 15:12:00,21.2,14.2,29.17,NW,304,3.0,11.0,74,0.00,,,0.00,135.00,VWS V14.01,2013-02-02 21:12:00,
2013-02-02 15:13:00,21.2,13.9,29.17,NW,317,3.0,5.0,73,0.00,,,0.00,128.00,VWS V14.01,2013-02-02 21:13:00,
2013-02-02 15:15:00,21.2,13.6,29.17,WNW,303,2.0,4.0,72,0.00,,,0.00,130.00,VWS V14.01,2013-02-02 21:15:00,
2013-02-02 15:17:00,21.1,13.5,29.17,WNW,299,3.0,10.0,72,0.00,,,0.00,134.00,VWS V14.01,2013-02-02 21:17:00,
2013-02-02 15:21:00,20.8,13.5,29.17,WNW,302,2.0,6.0,73,0.00,,,0.00,111.00,VWS V14.01,2013-02-02 21:21:00,
2013-02-02 15:23:00,20.6,13.6,29.17,WNW,294,5.0,5.0,74,0.00,,,0.00,93.00,VWS V14.01,2013-02-02 21:23:00,
2013-02-02 15:24:00,20.6,13.6,29.18,NW,312,1.0,5.0,74,0.00,,,0.00,90.00,VWS V14.01,2013-02-02 21:24:00,
2013-02-02 15:27:00,20.5,13.5,29.17,NW,322,4.0,8.0,74,0.00,,,0.00,77.00,VWS V14.01,2013-02-02 21:27:00,
2013-02-02 15:29:00,20.3,13.4,29.18,WNW,302,3.0,7.0,74,0.00,,,0.00,81.00,VWS V14.01,2013-02-02 21:29:00,
2013-02-02 15:32:00,20.1,13.2,29.18,North,360,0.0,8.0,74,0.00,,,0.00,84.00,VWS V14.01,2013-02-02 21:32:00,
2013-02-02 15:33:00,20.0,13.1,29.18,NNW,348,1.0,3.0,74,0.00,,,0.00,83.00,VWS V14.01,2013-02-02 21:33:00,
2013-02-02 15:34:00,20.0,13.1,29.18,NW,309,1.0,3.0,74,0.00,,,0.00,86.00,VWS V14.01,2013-02-02 21:34:00,
2013-02-02 15:38:00,19.9,13.3,29.18,West,260,2.0,7.0,75,0.00,,,0.00,77.00,VWS V14.01,2013-02-02 21:38:00,
2013-02-02 15:39:00,19.9,13.3,29.18,WNW,301,4.0,6.0,75,0.00,,,0.00,79.00,VWS V14.01,2013-02-02 21:39:00,
2013-02-02 15:40:00,19.8,13.2,29.18,WNW,302,0.0,4.0,75,0.00,,,0.00,79.00,VWS V14.01,2013-02-02 21:40:00,
2013-02-02 15:44:00,19.7,13.1,29.18,WNW,290,3.0,5.0,75,0.00,,,0.00,77.00,VWS V14.01,2013-02-02 21:44:00,
2013-02-02 15:46:00,19.7,13.4,29.18,NW,307,2.0,2.0,76,0.00,,,0.00,86.00,VWS V14.01,2013-02-02 21:46:00,
2013-02-02 15:47:00,19.7,13.4,29.18,NW,311,3.0,3.0,76,0.00,,,0.00,83.00,VWS V14.01,2013-02-02 21:47:00,
2013-02-02 15:50:00,19.5,13.5,29.18,WNW,303,4.0,8.0,77,0.00,,,0.00,84.00,VWS V14.01,2013-02-02 21:50:00,
2013-02-02 15:52:00,19.4,13.1,29.18,NW,304,2.0,3.0,76,0.00,,,0.00,70.00,VWS V14.01,2013-02-02 21:52:00,
2013-02-02 15:54:00,19.4,13.4,29.18,WNW,292,3.0,6.0,77,0.00,,,0.00,67.00,VWS V14.01,2013-02-02 21:54:00,
2013-02-02 15:55:00,19.3,13.0,29.18,NW,304,1.0,3.0,76,0.00,,,0.00,67.00,VWS V14.01,2013-02-02 21:55:00,
2013-02-02 15:56:00,19.3,13.3,29.18,NW,304,1.0,2.0,77,0.00,,,0.00,70.00,VWS V14.01,2013-02-02 21:56:00,
2013-02-02 15:59:00,19.0,13.0,29.18,West,269,2.0,6.0,77,0.00,,,0.00,70.00,VWS V14.01,2013-02-02 21:59:00,
2013-02-02 16:01:00,18.9,12.9,29.18,NW,322,2.0,3.0,77,0.00,,,0.00,62.00,VWS V14.01,2013-02-02 22:01:00,
2013-02-02 16:03:00,18.8,13.1,29.18,NW,322,0.0,2.0,78,0.00,,,0.00,56.00,VWS V14.01,2013-02-02 22:03:00,
2013-02-02 16:04:00,18.8,13.1,29.18,WNW,299,6.0,8.0,78,0.00,,,0.00,54.00,VWS V14.01,2013-02-02 22:04:00,
2013-02-02 16:08:00,18.7,12.7,29.18,WNW,301,1.0,3.0,77,0.00,,,0.00,58.00,VWS V14.01,2013-02-02 22:08:00,
2013-02-02 16:09:00,18.6,12.6,29.18,WNW,301,2.0,2.0,77,0.00,,,0.00,63.00,VWS V14.01,2013-02-02 22:09:00,
2013-02-02 16:10:00,18.6,12.6,29.18,NW,306,1.0,2.0,77,0.00,,,0.00,65.00,VWS V14.01,2013-02-02 22:10:00,
2013-02-02 16:15:00,18.7,12.4,29.18,NW,306,1.0,3.0,76,0.00,,,0.00,54.00,VWS V14.01,2013-02-02 22:15:00,
2013-02-02 16:17:00,18.7,12.4,29.18,NW,315,0.0,5.0,76,0.00,,,0.00,49.00,VWS V14.01,2013-02-02 22:17:00,
2013-02-02 16:18:00,18.7,12.4,29.19,West,279,3.0,5.0,76,0.00,,,0.00,47.00,VWS V14.01,2013-02-02 22:18:00,
2013-02-02 16:22:00,18.5,12.2,29.18,WNW,294,1.0,4.0,76,0.00,,,0.00,44.00,VWS V14.01,2013-02-02 22:22:00,
2013-02-02 16:23:00,18.4,12.1,29.18,WNW,294,0.0,2.0,76,0.00,,,0.00,44.00,VWS V14.01,2013-02-02 22:23:00,
2013-02-02 16:25:00,18.3,12.0,29.18,NW,306,0.0,2.0,76,0.00,,,0.00,40.00,VWS V14.01,2013-02-02 22:25:00,
2013-02-02 16:26:00,18.3,12.0,29.18,NW,306,0.0,1.0,76,0.00,,,0.00,40.00,VWS V14.01,2013-02-02 22:26:00,
2013-02-02 16:28:00,18.2,11.9,29.18,NW,306,7.0,7.0,76,0.00,,,0.00,37.00,VWS V14.01,2013-02-02 22:28:00,
2013-02-02 16:31:00,18.0,11.7,29.18,NW,306,1.0,2.0,76,0.00,,,0.00,33.00,VWS V14.01,2013-02-02 22:31:00,
2013-02-02 16:34:00,17.9,11.6,29.18,NW,318,5.0,5.0,76,0.00,,,0.00,28.00,VWS V14.01,2013-02-02 22:34:00,
2013-02-02 16:36:00,17.8,11.2,29.19,NW,304,0.0,3.0,75,0.00,,,0.00,26.00,VWS V14.01,2013-02-02 22:36:00,
2013-02-02 16:40:00,17.8,11.2,29.19,NW,315,0.0,2.0,75,0.00,,,0.00,28.00,VWS V14.01,2013-02-02 22:40:00,
2013-02-02 16:42:00,17.8,11.5,29.19,NW,315,3.0,4.0,76,0.00,,,0.00,28.00,VWS V14.01,2013-02-02 22:42:00,
2013-02-02 16:43:00,17.8,11.2,29.19,WNW,298,4.0,4.0,75,0.00,,,0.00,28.00,VWS V14.01,2013-02-02 22:43:00,
2013-02-02 16:45:00,17.8,11.2,29.19,NW,321,0.0,3.0,75,0.00,,,0.00,30.00,VWS V14.01,2013-02-02 22:45:00,
2013-02-02 16:46:00,17.8,11.2,29.19,NW,325,0.0,1.0,75,0.00,,,0.00,30.00,VWS V14.01,2013-02-02 22:46:00,
2013-02-02 16:48:00,17.8,11.2,29.19,WSW,244,2.0,2.0,75,0.00,,,0.00,30.00,VWS V14.01,2013-02-02 22:48:00,
2013-02-02 16:51:00,17.8,11.5,29.19,WNW,299,0.0,2.0,76,0.00,,,0.00,30.00,VWS V14.01,2013-02-02 22:51:00,
2013-02-02 16:52:00,17.7,11.4,29.19,WNW,299,0.0,1.0,76,0.00,,,0.00,30.00,VWS V14.01,2013-02-02 22:52:00,
2013-02-02 16:53:00,17.8,11.5,29.19,WNW,299,0.0,0.0,76,0.00,,,0.00,30.00,VWS V14.01,2013-02-02 22:53:00,
2013-02-02 16:54:00,17.7,11.4,29.19,WNW,299,0.0,0.0,76,0.00,,,0.00,30.00,VWS V14.01,2013-02-02 22:54:00,
2013-02-02 16:58:00,17.7,11.4,29.19,WSW,252,0.0,2.0,76,0.00,,,0.00,26.00,VWS V14.01,2013-02-02 22:58:00,
2013-02-02 16:59:00,17.7,11.4,29.19,NW,304,2.0,3.0,76,0.00,,,0.00,25.00,VWS V14.01,2013-02-02 22:59:00,
2013-02-02 17:03:00,17.6,11.3,29.19,NW,311,0.0,1.0,76,0.00,,,0.00,16.00,VWS V14.01,2013-02-02 23:03:00,
2013-02-02 17:04:00,17.5,11.2,29.19,NW,311,0.0,1.0,76,0.00,,,0.00,14.00,VWS V14.01,2013-02-02 23:04:00,
2013-02-02 17:07:00,17.5,11.2,29.19,NW,307,2.0,6.0,76,0.00,,,0.00,9.00,VWS V14.01,2013-02-02 23:07:00,
2013-02-02 17:09:00,17.4,11.1,29.19,NW,307,0.0,2.0,76,0.00,,,0.00,7.00,VWS V14.01,2013-02-02 23:09:00,
2013-02-02 17:11:00,17.3,11.1,29.19,NW,323,2.0,4.0,76,0.00,,,0.00,5.00,VWS V14.01,2013-02-02 23:11:00,
2013-02-02 17:13:00,17.3,11.1,29.19,NW,313,2.0,3.0,76,0.00,,,0.00,0.00,VWS V14.01,2013-02-02 23:13:00,
2013-02-02 17:14:00,17.3,11.1,29.19,NW,313,0.0,4.0,76,0.00,,,0.00,0.00,VWS V14.01,2013-02-02 23:14:00,
2013-02-02 17:19:00,17.2,10.9,29.20,WNW,299,4.0,8.0,76,0.00,,,0.00,0.00,VWS V14.01,2013-02-02 23:19:00,
2013-02-02 17:20:00,17.2,10.9,29.20,NW,309,0.0,5.0,76,0.00,,,0.00,0.00,VWS V14.01,2013-02-02 23:20:00,
2013-02-02 17:22:00,17.2,11.2,29.20,NW,313,1.0,2.0,77,0.00,,,0.00,0.00,VWS V14.01,2013-02-02 23:22:00,
2013-02-02 17:24:00,17.1,11.1,29.20,NW,313,1.0,3.0,77,0.00,,,0.00,0.00,VWS V14.01,2013-02-02 23:24:00,
2013-02-02 17:26:00,17.2,11.2,29.20,NW,307,4.0,6.0,77,0.00,,,0.00,0.00,VWS V14.01,2013-02-02 23:26:00,
2013-02-02 17:29:00,17.1,11.1,29.21,WNW,288,2.0,6.0,77,0.00,,,0.00,0.00,VWS V14.01,2013-02-02 23:29:00,
2013-02-02 17:30:00,17.1,11.1,29.21,NNW,333,2.0,3.0,77,0.00,,,0.00,0.00,VWS V14.01,2013-02-02 23:30:00,
2013-02-02 17:32:00,17.1,11.1,29.21,WNW,291,2.0,3.0,77,0.00,,,0.00,0.00,VWS V14.01,2013-02-02 23:32:00,
2013-02-02 17:33:00,17.1,11.1,29.20,WNW,291,1.0,2.0,77,0.00,,,0.00,0.00,VWS V14.01,2013-02-02 23:33:00,
2013-02-02 17:34:00,17.1,11.1,29.21,WNW,291,0.0,2.0,77,0.00,,,0.00,0.00,VWS V14.01,2013-02-02 23:34:00,
2013-02-02 17:35:00,17.1,11.1,29.20,NW,309,4.0,5.0,77,0.00,,,0.00,0.00,VWS V14.01,2013-02-02 23:35:00,
2013-02-02 17:40:00,17.1,11.4,29.21,NW,323,1.0,3.0,78,0.00,,,0.00,0.00,VWS V14.01,2013-02-02 23:40:00,
2013-02-02 17:41:00,17.1,11.4,29.20,North,349,0.0,1.0,78,0.00,,,0.00,0.00,VWS V14.01,2013-02-02 23:41:00,
2013-02-02 17:46:00,17.1,11.4,29.21,NW,314,0.0,1.0,78,0.00,,,0.00,0.00,VWS V14.01,2013-02-02 23:46:00,
2013-02-02 17:49:00,17.1,11.4,29.21,NW,314,0.0,2.0,78,0.00,,,0.00,0.00,VWS V14.01,2013-02-02 23:49:00,
2013-02-02 17:50:00,17.1,11.4,29.21,NW,314,0.0,1.0,78,0.00,,,0.00,0.00,VWS V14.01,2013-02-02 23:50:00,
2013-02-02 17:53:00,17.1,11.4,29.21,NW,314,0.0,2.0,78,0.00,,,0.00,0.00,VWS V14.01,2013-02-02 23:53:00,
2013-02-02 17:55:00,17.1,11.4,29.21,NW,314,0.0,2.0,78,0.00,,,0.00,0.00,VWS V14.01,2013-02-02 23:55:00,
2013-02-02 17:57:00,17.1,11.4,29.21,SW,230,0.0,1.0,78,0.00,,,0.00,0.00,VWS V14.01,2013-02-02 23:57:00,
2013-02-02 18:00:00,17.2,11.5,29.21,NW,304,0.0,2.0,78,0.00,,,0.00,0.00,VWS V14.01,2013-02-03 00:00:00,
2013-02-02 18:02:00,17.1,11.4,29.21,NW,304,1.0,1.0,78,0.00,,,0.00,0.00,VWS V14.01,2013-02-03 00:02:00,
2013-02-02 18:05:00,17.1,11.4,29.21,SW,225,0.0,3.0,78,0.00,,,0.00,0.00,VWS V14.01,2013-02-03 00:05:00,
2013-02-02 18:06:00,17.1,11.7,29.21,SW,225,0.0,1.0,79,0.00,,,0.00,0.00,VWS V14.01,2013-02-03 00:06:00,
2013-02-02 18:08:00,17.1,11.7,29.21,SW,227,1.0,2.0,79,0.00,,,0.00,0.00,VWS V14.01,2013-02-03 00:08:00,
2013-02-02 18:11:00,17.1,11.7,29.21,WNW,294,1.0,3.0,79,0.00,,,0.00,0.00,VWS V14.01,2013-02-03 00:11:00,
2013-02-02 18:16:00,17.1,11.7,29.21,NW,311,0.0,3.0,79,0.00,,,0.00,0.00,VWS V14.01,2013-02-03 00:16:00,
2013-02-02 18:19:00,17.1,11.7,29.21,WNW,283,0.0,3.0,79,0.00,,,0.00,0.00,VWS V14.01,2013-02-03 00:19:00,
2013-02-02 18:21:00,17.1,11.7,29.21,West,263,2.0,3.0,79,0.00,,,0.00,0.00,VWS V14.01,2013-02-03 00:21:00,
2013-02-02 18:25:00,17.0,11.6,29.21,NW,319,4.0,4.0,79,0.00,,,0.00,0.00,VWS V14.01,2013-02-03 00:25:00,
2013-02-02 18:26:00,17.0,11.3,29.21,West,259,1.0,4.0,78,0.00,,,0.00,0.00,VWS V14.01,2013-02-03 00:26:00,
2013-02-02 18:28:00,17.0,11.3,29.21,NW,315,4.0,4.0,78,0.00,,,0.00,0.00,VWS V14.01,2013-02-03 00:28:00,
2013-02-02 18:31:00,17.0,11.3,29.21,NW,309,1.0,3.0,78,0.00,,,0.00,0.00,VWS V14.01,2013-02-03 00:31:00,
2013-02-02 18:34:00,17.0,11.1,29.21,WNW,303,3.0,4.0,77,0.00,,,0.00,0.00,VWS V14.01,2013-02-03 00:34:00,
2013-02-02 18:36:00,17.0,11.1,29.21,NW,315,0.0,3.0,77,0.00,,,0.00,0.00,VWS V14.01,2013-02-03 00:36:00,
2013-02-02 18:39:00,17.0,11.1,29.21,NW,309,1.0,2.0,77,0.00,,,0.00,0.00,VWS V14.01,2013-02-03 00:39:00,
2013-02-02 18:42:00,17.0,11.1,29.21,NW,305,2.0,3.0,77,0.00,,,0.00,0.00,VWS V14.01,2013-02-03 00:42:00,
2013-02-02 18:43:00,17.0,11.1,29.20,NW,305,0.0,3.0,77,0.00,,,0.00,0.00,VWS V14.01,2013-02-03 00:43:00,
2013-02-02 18:45:00,17.0,11.1,29.20,NNW,330,0.0,3.0,77,0.00,,,0.00,0.00,VWS V14.01,2013-02-03 00:45:00,
2013-02-02 18:47:00,17.0,11.1,29.20,NW,310,1.0,2.0,77,0.00,,,0.00,0.00,VWS V14.01,2013-02-03 00:47:00,
2013-02-02 18:50:00,16.9,10.9,29.20,NW,310,1.0,2.0,77,0.00,,,0.00,0.00,VWS V14.01,2013-02-03 00:50:00,
2013-02-02 18:55:00,16.8,10.6,29.20,WNW,294,0.0,3.0,76,0.00,,,0.00,0.00,VWS V14.01,2013-02-03 00:55:00,
2013-02-02 18:56:00,16.8,10.6,29.20,WNW,294,0.0,2.0,76,0.00,,,0.00,0.00,VWS V14.01,2013-02-03 00:56:00,
2013-02-02 18:59:00,16.7,10.5,29.20,NNW,333,0.0,2.0,76,0.00,,,0.00,0.00,VWS V14.01,2013-02-03 00:59:00,
2013-02-02 19:02:00,16.7,10.2,29.20,NW,311,2.0,2.0,75,0.00,,,0.00,0.00,VWS V14.01,2013-02-03 01:02:00,
2013-02-02 19:04:00,16.7,10.2,29.20,NW,311,1.0,2.0,75,0.00,,,0.00,0.00,VWS V14.01,2013-02-03 01:04:00,
2013-02-02 19:05:00,16.7,10.2,29.20,NW,311,0.0,2.0,75,0.00,,,0.00,0.00,VWS V14.01,2013-02-03 01:05:00,
2013-02-02 19:09:00,16.6,9.8,29.20,West,265,5.0,5.0,74,0.00,,,0.00,0.00,VWS V14.01,2013-02-03 01:09:00,
2013-02-02 19:11:00,16.6,9.8,29.21,WNW,293,2.0,3.0,74,0.00,,,0.00,0.00,VWS V14.01,2013-02-03 01:11:00,
2013-02-02 19:14:00,16.6,9.8,29.21,WNW,299,0.0,2.0,74,0.00,,,0.00,0.00,VWS V14.01,2013-02-03 01:14:00,
2013-02-02 19:16:00,16.5,9.7,29.21,NNW,328,1.0,9.0,74,0.00,,,0.00,0.00,VWS V14.01,2013-02-03 01:16:00,
2013-02-02 19:17:00,16.5,9.4,29.21,West,279,2.0,3.0,73,0.00,,,0.00,0.00,VWS V14.01,2013-02-03 01:17:00,
2013-02-02 19:22:00,16.5,9.4,29.21,NW,308,2.0,6.0,73,0.00,,,0.00,0.00,VWS V14.01,2013-02-03 01:22:00,
2013-02-02 19:24:00,16.5,9.4,29.21,NW,308,5.0,7.0,73,0.00,,,0.00,0.00,VWS V14.01,2013-02-03 01:24:00,
2013-02-02 19:30:00,16.5,9.4,29.20,NW,317,0.0,0.0,73,0.00,,,0.00,0.00,VWS V14.01,2013-02-03 01:30:00,
2013-02-02 19:35:00,16.4,9.0,29.20,NW,306,2.0,5.0,72,0.00,,,0.00,0.00,VWS V14.01,2013-02-03 01:35:00,
2013-02-02 19:36:00,16.4,9.0,29.20,NW,313,3.0,6.0,72,0.00,,,0.00,0.00,VWS V14.01,2013-02-03 01:36:00,
2013-02-02 19:39:00,16.4,9.0,29.20,NW,313,1.0,3.0,72,0.00,,,0.00,0.00,VWS V14.01,2013-02-03 01:39:00,
2013-02-02 19:41:00,16.4,9.0,29.20,NW,313,3.0,4.0,72,0.00,,,0.00,0.00,VWS V14.01,2013-02-03 01:41:00,
2013-02-02 19:42:00,16.4,9.0,29.20,NW,313,2.0,5.0,72,0.00,,,0.00,0.00,VWS V14.01,2013-02-03 01:42:00,
2013-02-02 19:47:00,16.3,8.9,29.20,WNW,294,1.0,2.0,72,0.00,,,0.00,0.00,VWS V14.01,2013-02-03 01:47:00,
2013-02-02 19:48:00,16.3,8.9,29.20,WNW,294,0.0,1.0,72,0.00,,,0.00,0.00,VWS V14.01,2013-02-03 01:48:00,
2013-02-02 19:52:00,16.2,8.8,29.20,WNW,294,0.0,1.0,72,0.00,,,0.00,0.00,VWS V14.01,2013-02-03 01:52:00,
2013-02-02 19:56:00,16.2,8.8,29.20,WNW,294,0.0,2.0,72,0.00,,,0.00,0.00,VWS V14.01,2013-02-03 01:56:00,
2013-02-02 19:57:00,16.1,8.7,29.20,WNW,294,0.0,0.0,72,0.00,,,0.00,0.00,VWS V14.01,2013-02-03 01:57:00,
2013-02-02 19:59:00,16.1,8.7,29.20,WNW,294,0.0,0.0,72,0.00,,,0.00,0.00,VWS V14.01,2013-02-03 01:59:00,
2013-02-02 20:04:00,16.1,8.7,29.19,WNW,294,0.0,1.0,72,0.00,,OVC065,0.00,0.00,VWS V14.01,2013-02-03 02:04:00,
2013-02-02 20:05:00,16.1,8.7,29.19,WNW,294,0.0,0.0,72,0.00,,OVC065,0.00,0.00,VWS V14.01,2013-02-03 02:05:00,
2013-02-02 20:07:00,16.0,8.6,29.19,WNW,294,0.0,0.0,72,0.00,,OVC065,0.00,0.00,VWS V14.01,2013-02-03 02:07:00,
2013-02-02 20:10:00,16.0,8.6,29.19,WSW,257,0.0,3.0,72,0.00,,OVC065,0.00,0.00,VWS V14.01,2013-02-03 02:10:00,
2013-02-02 20:13:00,16.0,8.6,29.19,West,262,1.0,1.0,72,0.00,,OVC065,0.00,0.00,VWS V14.01,2013-02-03 02:13:00,
2013-02-02 20:15:00,15.9,8.5,29.19,West,263,0.0,2.0,72,0.00,,OVC065,0.00,0.00,VWS V14.01,2013-02-03 02:15:00,
2013-02-02 20:18:00,15.9,8.5,29.19,West,263,0.0,1.0,72,0.00,,OVC065,0.00,0.00,VWS V14.01,2013-02-03 02:18:00,
2013-02-02 20:21:00,15.9,8.5,29.20,West,263,0.0,0.0,72,0.00,,OVC065,0.00,0.00,VWS V14.01,2013-02-03 02:21:00,
2013-02-02 20:22:00,15.9,8.5,29.19,West,263,1.0,1.0,72,0.00,,OVC065,0.00,0.00,VWS V14.01,2013-02-03 02:22:00,
2013-02-02 20:24:00,15.9,8.5,29.20,NW,307,7.0,7.0,72,0.00,,OVC065,0.00,0.00,VWS V14.01,2013-02-03 02:24:00,
2013-02-02 20:28:00,15.9,8.5,29.20,NW,318,0.0,0.0,72,0.00,,OVC065,0.00,0.00,VWS V14.01,2013-02-03 02:28:00,
2013-02-02 20:29:00,15.9,8.5,29.20,NW,317,1.0,3.0,72,0.00,,OVC065,0.00,0.00,VWS V14.01,2013-02-03 02:29:00,
2013-02-02 20:32:00,16.0,8.6,29.20,NW,321,2.0,2.0,72,0.00,,OVC065,0.00,0.00,VWS V14.01,2013-02-03 02:32:00,
2013-02-02 20:35:00,16.0,8.3,29.19,WNW,299,0.0,2.0,71,0.00,,OVC065,0.00,0.00,VWS V14.01,2013-02-03 02:35:00,
2013-02-02 20:37:00,16.0,8.3,29.19,WNW,299,0.0,2.0,71,0.00,,OVC065,0.00,0.00,VWS V14.01,2013-02-03 02:37:00,
2013-02-02 20:38:00,16.0,8.3,29.19,NW,306,4.0,4.0,71,0.00,,OVC065,0.00,0.00,VWS V14.01,2013-02-03 02:38:00,
2013-02-02 20:44:00,16.0,8.3,29.19,NW,319,0.0,3.0,71,0.00,,OVC065,0.00,0.00,VWS V14.01,2013-02-03 02:44:00,
2013-02-02 20:46:00,16.0,8.3,29.19,WNW,283,1.0,4.0,71,0.00,,OVC065,0.00,0.00,VWS V14.01,2013-02-03 02:46:00,
2013-02-02 20:47:00,16.0,8.3,29.19,NW,323,2.0,4.0,71,0.00,,OVC065,0.00,0.00,VWS V14.01,2013-02-03 02:47:00,
2013-02-02 20:52:00,16.0,8.3,29.20,NW,311,4.0,5.0,71,0.00,,OVC065,0.00,0.00,VWS V14.01,2013-02-03 02:52:00,
2013-02-02 20:53:00,16.0,8.3,29.20,NW,309,1.0,6.0,71,0.00,,OVC065,0.00,0.00,VWS V14.01,2013-02-03 02:53:00,
2013-02-02 20:56:00,16.0,8.0,29.20,NW,321,2.0,3.0,70,0.00,,OVC065,0.00,0.00,VWS V14.01,2013-02-03 02:56:00,
2013-02-02 20:57:00,16.0,8.0,29.20,NW,321,1.0,2.0,70,0.00,,OVC065,0.00,0.00,VWS V14.01,2013-02-03 02:57:00,
2013-02-02 20:58:00,16.0,8.0,29.20,NW,321,1.0,3.0,70,0.00,,OVC065,0.00,0.00,VWS V14.01,2013-02-03 02:58:00,
2013-02-02 21:02:00,16.0,8.0,29.20,NW,304,1.0,3.0,70,0.00,,BKN,0.00,0.00,VWS V14.01,2013-02-03 03:02:00,
2013-02-02 21:03:00,16.0,8.0,29.19,NW,313,3.0,3.0,70,0.00,,BKN,0.00,0.00,VWS V14.01,2013-02-03 03:03:00,
2013-02-02 21:04:00,15.9,7.9,29.19,NW,313,0.0,3.0,70,0.00,,BKN,0.00,0.00,VWS V14.01,2013-02-03 03:04:00,
2013-02-02 21:05:00,15.9,7.9,29.19,NW,313,0.0,0.0,70,0.00,,BKN,0.00,0.00,VWS V14.01,2013-02-03 03:05:00,
2013-02-02 21:07:00,15.9,7.9,29.19,NW,313,0.0,0.0,70,0.00,,BKN,0.00,0.00,VWS V14.01,2013-02-03 03:07:00,
2013-02-02 21:09:00,15.9,7.9,29.19,NW,313,0.0,0.0,70,0.00,,BKN,0.00,0.00,VWS V14.01,2013-02-03 03:09:00,
2013-02-02 21:10:00,15.8,7.8,29.19,NW,313,0.0,0.0,70,0.00,,BKN,0.00,0.00,VWS V14.01,2013-02-03 03:10:00,
2013-02-02 21:14:00,15.7,7.7,29.19,NW,313,0.0,0.0,70,0.00,,BKN,0.00,0.00,VWS V14.01,2013-02-03 03:14:00,
2013-02-02 21:15:00,15.7,7.7,29.19,NW,313,0.0,0.0,70,0.00,,BKN,0.00,0.00,VWS V14.01,2013-02-03 03:15:00,
2013-02-02 21:17:00,15.7,7.7,29.19,NW,313,2.0,2.0,70,0.00,,BKN,0.00,0.00,VWS V14.01,2013-02-03 03:17:00,
2013-02-02 21:20:00,15.6,7.9,29.19,NW,313,0.0,1.0,71,0.00,,BKN,0.00,0.00,VWS V14.01,2013-02-03 03:20:00,
2013-02-02 21:22:00,15.5,7.8,29.19,NW,313,0.0,2.0,71,0.00,,BKN,0.00,0.00,VWS V14.01,2013-02-03 03:22:00,
2013-02-02 21:26:00,15.5,7.8,29.19,NW,313,0.0,0.0,71,0.00,,BKN,0.00,0.00,VWS V14.01,2013-02-03 03:26:00,
2013-02-02 21:27:00,15.5,7.8,29.19,NW,313,0.0,1.0,71,0.00,,BKN,0.00,0.00,VWS V14.01,2013-02-03 03:27:00,
2013-02-02 21:30:00,15.5,7.8,29.18,NW,313,0.0,0.0,71,0.00,,BKN,0.00,0.00,VWS V14.01,2013-02-03 03:30:00,
2013-02-02 21:34:00,15.5,7.8,29.18,NW,313,0.0,0.0,71,0.00,,BKN,0.00,0.00,VWS V14.01,2013-02-03 03:34:00,
2013-02-02 21:37:00,15.5,7.8,29.18,NW,313,0.0,1.0,71,0.00,,BKN,0.00,0.00,VWS V14.01,2013-02-03 03:37:00,
2013-02-02 21:39:00,15.4,7.7,29.18,NW,313,0.0,1.0,71,0.00,,BKN,0.00,0.00,VWS V14.01,2013-02-03 03:39:00,
2013-02-02 21:41:00,15.4,7.7,29.18,NW,313,0.0,0.0,71,0.00,,BKN,0.00,0.00,VWS V14.01,2013-02-03 03:41:00,
2013-02-02 21:42:00,15.4,7.7,29.18,NW,313,0.0,0.0,71,0.00,,BKN,0.00,0.00,VWS V14.01,2013-02-03 03:42:00,
2013-02-02 21:44:00,15.4,8.0,29.18,NW,313,0.0,1.0,72,0.00,,BKN,0.00,0.00,VWS V14.01,2013-02-03 03:44:00,
2013-02-02 21:45:00,15.4,7.7,29.18,NW,313,0.0,0.0,71,0.00,,BKN,0.00,0.00,VWS V14.01,2013-02-03 03:45:00,
2013-02-02 21:47:00,15.4,7.7,29.18,NW,313,0.0,0.0,71,0.00,,BKN,0.00,0.00,VWS V14.01,2013-02-03 03:47:00,
2013-02-02 21:49:00,15.3,7.9,29.18,NW,313,0.0,0.0,72,0.00,,BKN,0.00,0.00,VWS V14.01,2013-02-03 03:49:00,
2013-02-02 21:50:00,15.3,7.9,29.18,NW,313,0.0,0.0,72,0.00,,BKN,0.00,0.00,VWS V14.01,2013-02-03 03:50:00,
2013-02-02 21:52:00,15.3,7.9,29.18,NW,313,0.0,0.0,72,0.00,,BKN,0.00,0.00,VWS V14.01,2013-02-03 03:52:00,
2013-02-02 21:57:00,15.2,7.8,29.18,NW,313,0.0,1.0,72,0.00,,BKN,0.00,0.00,VWS V14.01,2013-02-03 03:57:00,
2013-02-02 21:58:00,15.2,7.8,29.18,NW,313,0.0,0.0,72,0.00,,BKN,0.00,0.00,VWS V14.01,2013-02-03 03:58:00,
2013-02-02 21:59:00,15.2,7.8,29.18,NW,313,0.0,0.0,72,0.00,,BKN,0.00,0.00,VWS V14.01,2013-02-03 03:59:00,
2013-02-02 22:03:00,15.1,7.7,29.17,NW,313,0.0,0.0,72,0.00,,BKN,0.00,0.00,VWS V14.01,2013-02-03 04:03:00,
2013-02-02 22:05:00,15.1,7.7,29.17,NW,313,0.0,0.0,72,0.00,,BKN,0.00,0.00,VWS V14.01,2013-02-03 04:05:00,
2013-02-02 22:06:00,15.1,7.7,29.17,NW,313,0.0,0.0,72,0.00,,BKN,0.00,0.00,VWS V14.01,2013-02-03 04:06:00,
2013-02-02 22:08:00,15.0,7.6,29.17,NW,313,0.0,0.0,72,0.00,,BKN,0.00,0.00,VWS V14.01,2013-02-03 04:08:00,
2013-02-02 22:10:00,15.0,7.9,29.16,NW,313,0.0,0.0,73,0.00,,BKN,0.00,0.00,VWS V14.01,2013-02-03 04:10:00,
2013-02-02 22:15:00,15.0,7.9,29.16,NW,313,0.0,0.0,73,0.00,,BKN,0.00,0.00,VWS V14.01,2013-02-03 04:15:00,
2013-02-02 22:16:00,14.9,7.8,29.16,NW,313,0.0,0.0,73,0.00,,BKN,0.00,0.00,VWS V14.01,2013-02-03 04:16:00,
2013-02-02 22:21:00,15.0,7.9,29.16,NW,313,0.0,0.0,73,0.00,,BKN,0.00,0.00,VWS V14.01,2013-02-03 04:21:00,
2013-02-02 22:22:00,15.0,7.9,29.17,NW,313,0.0,0.0,73,0.00,,BKN,0.00,0.00,VWS V14.01,2013-02-03 04:22:00,
2013-02-02 22:28:00,15.2,8.1,29.16,NW,313,0.0,0.0,73,0.00,,BKN,0.00,0.00,VWS V14.01,2013-02-03 04:28:00,
2013-02-02 22:29:00,15.2,8.1,29.17,NW,313,0.0,0.0,73,0.00,,BKN,0.00,0.00,VWS V14.01,2013-02-03 04:29:00,
2013-02-02 22:30:00,15.2,8.1,29.16,NW,313,0.0,0.0,73,0.00,,BKN,0.00,0.00,VWS V14.01,2013-02-03 04:30:00,
2013-02-02 22:34:00,15.3,8.2,29.16,NW,313,0.0,0.0,73,0.00,,BKN,0.00,0.00,VWS V14.01,2013-02-03 04:34:00,
2013-02-02 22:35:00,15.3,8.2,29.16,NW,313,0.0,0.0,73,0.00,,BKN,0.00,0.00,VWS V14.01,2013-02-03 04:35:00,
2013-02-02 22:37:00,15.4,8.3,29.16,NW,313,0.0,2.0,73,0.00,,BKN,0.00,0.00,VWS V14.01,2013-02-03 04:37:00,
2013-02-02 22:40:00,15.4,8.3,29.16,NW,313,0.0,0.0,73,0.00,,BKN,0.00,0.00,VWS V14.01,2013-02-03 04:40:00,
2013-02-02 22:41:00,15.4,8.3,29.16,NW,313,0.0,0.0,73,0.00,,BKN,0.00,0.00,VWS V14.01,2013-02-03 04:41:00,
2013-02-02 22:43:00,15.5,8.4,29.16,NW,313,0.0,1.0,73,0.00,,BKN,0.00,0.00,VWS V14.01,2013-02-03 04:43:00,
2013-02-02 22:45:00,15.5,8.4,29.16,NW,313,0.0,0.0,73,0.00,,BKN,0.00,0.00,VWS V14.01,2013-02-03 04:45:00,
2013-02-02 22:46:00,15.5,8.4,29.16,NW,313,0.0,0.0,73,0.00,,BKN,0.00,0.00,VWS V14.01,2013-02-03 04:46:00,
2013-02-02 22:50:00,15.7,8.6,29.16,NW,313,0.0,0.0,73,0.00,,BKN,0.00,0.00,VWS V14.01,2013-02-03 04:50:00,
2013-02-02 22:51:00,15.7,8.6,29.16,NW,313,0.0,0.0,73,0.00,,BKN,0.00,0.00,VWS V14.01,2013-02-03 04:51:00,
2013-02-02 22:52:00,15.7,8.3,29.16,NW,313,0.0,0.0,72,0.00,,BKN,0.00,0.00,VWS V14.01,2013-02-03 04:52:00,
2013-02-02 22:56:00,15.8,8.4,29.16,NW,313,0.0,1.0,72,0.00,,BKN,0.00,0.00,VWS V14.01,2013-02-03 04:56:00,
2013-02-02 22:57:00,15.8,8.4,29.16,NW,313,0.0,0.0,72,0.00,,BKN,0.00,0.00,VWS V14.01,2013-02-03 04:57:00,
2013-02-02 22:58:00,15.8,8.4,29.16,NW,313,0.0,0.0,72,0.00,,BKN,0.00,0.00,VWS V14.01,2013-02-03 04:58:00,
2013-02-02 23:00:00,15.8,8.4,29.16,NW,313,0.0,0.0,72,0.00,,BKN,0.00,0.00,VWS V14.01,2013-02-03 05:00:00,
2013-02-02 23:01:00,15.8,8.4,29.15,NW,313,0.0,0.0,72,0.00,,SCT025,0.00,0.00,VWS V14.01,2013-02-03 05:01:00,
2013-02-02 23:03:00,15.8,8.4,29.15,NW,313,0.0,0.0,72,0.00,,SCT025,0.00,0.00,VWS V14.01,2013-02-03 05:03:00,
2013-02-02 23:06:00,15.8,8.4,29.15,NW,313,0.0,0.0,72,0.00,,SCT025,0.00,0.00,VWS V14.01,2013-02-03 05:06:00,
2013-02-02 23:07:00,15.8,8.4,29.15,NW,313,0.0,0.0,72,0.00,,SCT025,0.00,0.00,VWS V14.01,2013-02-03 05:07:00,
2013-02-02 23:11:00,15.8,8.4,29.15,NW,313,0.0,0.0,72,0.00,,SCT025,0.00,0.00,VWS V14.01,2013-02-03 05:11:00,
2013-02-02 23:13:00,15.8,8.4,29.15,NW,313,0.0,0.0,72,0.00,,SCT025,0.00,0.00,VWS V14.01,2013-02-03 05:13:00,
2013-02-02 23:18:00,15.8,8.4,29.14,NW,313,0.0,1.0,72,0.00,,SCT025,0.00,0.00,VWS V14.01,2013-02-03 05:18:00,
2013-02-02 23:19:00,15.7,8.3,29.14,NW,313,0.0,0.0,72,0.00,,SCT025,0.00,0.00,VWS V14.01,2013-02-03 05:19:00,
2013-02-02 23:21:00,15.7,8.3,29.14,NW,313,0.0,0.0,72,0.00,,SCT025,0.00,0.00,VWS V14.01,2013-02-03 05:21:00,
2013-02-02 23:25:00,15.7,8.3,29.14,NW,313,0.0,0.0,72,0.00,,SCT025,0.00,0.00,VWS V14.01,2013-02-03 05:25:00,
2013-02-02 23:26:00,15.8,8.4,29.14,NW,313,0.0,0.0,72,0.00,,SCT025,0.00,0.00,VWS V14.01,2013-02-03 05:26:00,
2013-02-02 23:31:00,15.8,8.7,29.14,NW,313,0.0,0.0,73,0.00,,SCT025,0.00,0.00,VWS V14.01,2013-02-03 05:31:00,
2013-02-02 23:32:00,15.8,8.7,29.14,NW,313,0.0,0.0,73,0.00,,SCT025,0.00,0.00,VWS V14.01,2013-02-03 05:32:00,
2013-02-02 23:33:00,15.8,8.7,29.14,NW,313,0.0,0.0,73,0.00,,SCT025,0.00,0.00,VWS V14.01,2013-02-03 05:33:00,
2013-02-02 23:35:00,15.8,8.7,29.14,NW,313,0.0,0.0,73,0.00,,SCT025,0.00,0.00,VWS V14.01,2013-02-03 05:35:00,
2013-02-02 23:38:00,15.8,8.7,29.14,NW,313,0.0,0.0,73,0.00,,SCT025,0.00,0.00,VWS V14.01,2013-02-03 05:38:00,
2013-02-02 23:39:00,15.8,8.7,29.14,NW,313,0.0,0.0,73,0.00,,SCT025,0.00,0.00,VWS V14.01,2013-02-03 05:39:00,
2013-02-02 23:41:00,15.9,8.8,29.14,NW,313,0.0,0.0,73,0.00,,SCT025,0.00,0.00,VWS V14.01,2013-02-03 05:41:00,
2013-02-02 23:44:00,15.9,8.8,29.13,NW,313,0.0,1.0,73,0.00,,SCT025,0.00,0.00,VWS V14.01,2013-02-03 05:44:00,
2013-02-02 23:45:00,15.9,8.8,29.13,NW,313,0.0,0.0,73,0.00,,SCT025,0.00,0.00,VWS V14.01,2013-02-03 05:45:00,
2013-02-02 23:48:00,15.9,8.8,29.14,NW,313,0.0,0.0,73,0.00,,SCT025,0.00,0.00,VWS V14.01,2013-02-03 05:48:00,
2013-02-02 23:50:00,15.9,8.8,29.14,NW,313,0.0,1.0,73,0.00,,SCT025,0.00,0.00,VWS V14.01,2013-02-03 05:50:00,
2013-02-02 23:54:00,15.9,8.8,29.14,NW,313,0.0,0.0,73,0.00,,SCT025,0.00,0.00,VWS V14.01,2013-02-03 05:54:00,
2013-02-02 23:56:00,16.0,8.9,29.13,NW,313,0.0,1.0,73,0.00,,SCT025,0.00,0.00,VWS V14.01,2013-02-03 05:56:00,
2013-02-02 23:58:00,16.0,8.9,29.13,NW,313,0.0,0.0,73,0.00,,SCT025,0.00,0.00,VWS V14.01,2013-02-03 05:58:00,